EW2975 Weather Reports


Display with metric or nautical units.
time (UTC)temp
F
wind
direction
speed
MPH
gust
MPH
rain 1hr
in
rain 24hr
in
rain mn
in
humidity
%
barometer
mb
20260831051003 84 158 4.0 7.0 0.00 0.00 0.00 63 1014.6
20260831050904 84 157 4.0 7.0 0.00 0.00 0.00 63 1014.6
20260831050804 84 157 4.0 8.0 0.00 0.00 0.00 63 1014.5
20260831050705 84 157 4.0 8.0 0.00 0.00 0.00 63 1014.5
20260831050604 84 157 4.0 8.0 0.00 0.00 0.00 63 1014.5
20260831050504 84 156 4.0 8.0 0.00 0.00 0.00 62 1014.5
20260831050404 84 156 4.0 8.0 0.00 0.00 0.00 62 1014.5
20260831050303 84 155 5.0 8.0 0.00 0.00 0.00 62 1014.5
20260831050204 84 156 5.0 11.0 0.00 0.00 0.00 62 1014.5
20260831050104 84 156 5.0 11.0 0.00 0.00 0.00 62 1014.5
20260831050005 84 156 5.0 11.0 0.00 0.00 0.00 62 1014.5
20260831045903 84 155 5.0 11.0 0.00 0.00 0.00 62 1014.5
20260831045804 84 155 5.0 11.0 0.00 0.00 0.00 62 1014.5
20260831045704 84 154 5.0 11.0 0.00 0.00 0.00 62 1014.4
20260831045603 84 155 5.0 11.0 0.00 0.00 0.00 62 1014.4
20260831045505 84 154 5.0 11.0 0.00 0.00 0.00 62 1014.5
20260831045404 85 154 5.0 11.0 0.00 0.00 0.00 62 1014.4
20260831045306 85 156 5.0 11.0 0.00 0.00 0.00 62 1014.4
20260831045204 85 156 5.0 10.0 0.00 0.00 0.00 62 1014.5
20260831045104 85 158 5.0 10.0 0.00 0.00 0.00 62 1014.4
20260831045004 85 159 5.0 10.0 0.00 0.00 0.00 61 1014.5
20260831044904 85 160 5.0 9.0 0.00 0.00 0.00 61 1014.4
20260831044804 85 160 5.0 10.0 0.00 0.00 0.00 61 1014.4
20260831044603 85 161 6.0 10.0 0.00 0.00 0.00 61 1014.4
20260831044504 85 161 6.0 10.0 0.00 0.00 0.00 61 1014.4
20260831044404 85 161 6.0 10.0 0.00 0.00 0.00 61 1014.4
20260831044304 85 160 5.0 10.0 0.00 0.00 0.00 61 1014.4
20260831044103 85 158 5.0 10.0 0.00 0.00 0.00 61 1014.4
20260831044004 85 157 5.0 10.0 0.00 0.00 0.00 61 1014.3
20260831043903 85 158 5.0 10.0 0.00 0.00 0.00 61 1014.4
20260831043804 85 159 6.0 10.0 0.00 0.00 0.00 61 1014.4
20260831043604 85 160 6.0 11.0 0.00 0.00 0.00 61 1014.4
20260831043505 85 161 6.0 11.0 0.00 0.00 0.00 61 1014.4
20260831043404 85 162 6.0 11.0 0.00 0.00 0.00 60 1014.4
20260831043303 85 163 6.0 11.0 0.00 0.00 0.00 60 1014.4
20260831043204 85 163 6.0 12.0 0.00 0.00 0.00 60 1014.4
20260831042904 85 163 7.0 13.0 0.00 0.00 0.00 60 1014.4
20260831042804 85 162 6.0 13.0 0.00 0.00 0.00 60 1014.4
20260831042704 85 160 7.0 13.0 0.00 0.00 0.00 60 1014.3
20260831042604 85 160 7.0 14.0 0.00 0.00 0.00 60 1014.3
20260831042503 85 160 7.0 14.0 0.00 0.00 0.00 60 1014.3
20260831042306 85 160 7.0 14.0 0.00 0.00 0.00 60 1014.3
20260831042103 85 158 7.0 14.0 0.00 0.00 0.00 60 1014.3
20260831042004 85 157 7.0 14.0 0.00 0.00 0.00 60 1014.3
20260831041903 85 157 6.0 14.0 0.00 0.00 0.00 60 1014.3
20260831041804 85 156 6.0 14.0 0.00 0.00 0.00 60 1014.3
20260831041703 85 157 5.0 14.0 0.00 0.00 0.00 60 1014.3
20260831041604 85 155 5.0 11.0 0.00 0.00 0.00 60 1014.3
20260831041504 85 154 5.0 11.0 0.00 0.00 0.00 60 1014.3
20260831041204 85 151 5.0 9.0 0.00 0.00 0.00 60 1014.3
20260831041103 85 151 5.0 9.0 0.00 0.00 0.00 59 1014.3
20260831040903 85 152 5.0 10.0 0.00 0.00 0.00 59 1014.2
20260831040704 85 153 6.0 11.0 0.00 0.00 0.00 59 1014.2
20260831040604 85 153 6.0 11.0 0.00 0.00 0.00 59 1014.2
20260831040504 85 154 6.0 11.0 0.00 0.00 0.00 58 1014.2
20260831040404 85 154 6.0 11.0 0.00 0.00 0.00 58 1014.2
20260831040303 85 154 6.0 11.0 0.00 0.00 0.00 58 1014.2
20260831040204 85 154 6.0 11.0 0.00 0.00 0.00 58 1014.2
20260831040103 85 156 6.0 15.0 0.00 0.00 0.00 58 1014.2
20260831040004 85 156 6.0 15.0 0.00 0.00 0.00 58 1014.1
20260831035903 85 155 6.0 15.0 0.00 0.00 0.00 58 1014.1
20260831035604 86 153 6.0 15.0 0.00 0.00 0.00 58 1014.1
20260831035404 86 154 6.0 15.0 0.00 0.00 0.00 58 1014.1
20260831035204 86 154 7.0 15.0 0.00 0.00 0.00 58 1014.1
20260831035103 86 152 7.0 12.0 0.00 0.00 0.00 57 1014.0
20260831035004 86 151 7.0 12.0 0.00 0.00 0.00 57 1014.0
20260831034904 86 151 7.0 12.0 0.00 0.00 0.00 57 1014.0
20260831034804 86 152 7.0 12.0 0.00 0.00 0.00 57 1014.0
20260831034704 86 151 7.0 12.0 0.00 0.00 0.00 57 1014.0
20260831034604 86 153 7.0 12.0 0.00 0.00 0.00 57 1013.9
20260831034504 86 152 7.0 12.0 0.00 0.00 0.00 57 1013.9
20260831034404 86 151 7.0 12.0 0.00 0.00 0.00 57 1013.9
20260831034304 86 149 7.0 14.0 0.00 0.00 0.00 57 1013.9
20260831034204 86 150 7.0 14.0 0.00 0.00 0.00 56 1013.9
20260831034103 86 152 7.0 14.0 0.00 0.00 0.00 56 1013.9
20260831033903 86 152 7.0 14.0 0.00 0.00 0.00 56 1013.9
20260831033803 86 151 7.0 14.0 0.00 0.00 0.00 56 1013.9
20260831033704 86 153 7.0 14.0 0.00 0.00 0.00 56 1013.9
20260831033604 86 151 7.0 14.0 0.00 0.00 0.00 55 1013.9
20260831033504 86 153 7.0 14.0 0.00 0.00 0.00 55 1013.9
20260831033304 86 154 7.0 13.0 0.00 0.00 0.00 55 1013.9
20260831033203 86 153 6.0 13.0 0.00 0.00 0.00 55 1013.9
20260831033104 86 152 6.0 11.0 0.00 0.00 0.00 55 1013.9
20260831032804 86 151 6.0 11.0 0.00 0.00 0.00 54 1013.8
20260831032604 86 152 6.0 11.0 0.00 0.00 0.00 54 1013.9
20260831032503 86 151 7.0 11.0 0.00 0.00 0.00 54 1013.8
20260831032404 86 151 6.0 11.0 0.00 0.00 0.00 53 1013.8
20260831032306 86 150 7.0 11.0 0.00 0.00 0.00 53 1013.8
20260831032204 86 149 7.0 12.0 0.00 0.00 0.00 53 1013.8
20260831032103 86 147 7.0 14.0 0.00 0.00 0.00 53 1013.8
20260831031803 86 145 7.0 14.0 0.00 0.00 0.00 52 1013.8
20260831031704 86 144 7.0 14.0 0.00 0.00 0.00 52 1013.8
20260831031604 87 142 7.0 14.0 0.00 0.00 0.00 52 1013.8
20260831031504 87 142 6.0 14.0 0.00 0.00 0.00 52 1013.8
20260831031403 87 140 6.0 14.0 0.00 0.00 0.00 52 1013.7
20260831031304 87 139 6.0 14.0 0.00 0.00 0.00 52 1013.8
20260831031203 87 138 5.0 14.0 0.00 0.00 0.00 51 1013.8
20260831031103 86 137 5.0 14.0 0.00 0.00 0.00 51 1013.7
20260831030804 86 135 4.0 14.0 0.00 0.00 0.00 50 1013.7
20260831030703 86 131 3.0 14.0 0.00 0.00 0.00 50 1013.6
20260831030604 86 127 3.0 7.0 0.00 0.00 0.00 50 1013.6
20260831030504 86 124 3.0 7.0 0.00 0.00 0.00 50 1013.5
20260831030404 86 124 4.0 7.0 0.00 0.00 0.00 50 1013.5
20260831030305 86 122 3.0 7.0 0.00 0.00 0.00 50 1013.6
20260831030203 86 122 3.0 7.0 0.00 0.00 0.00 50 1013.5
20260831030104 86 122 3.0 6.0 0.00 0.00 0.00 50 1013.5
20260831030003 86 122 4.0 6.0 0.00 0.00 0.00 50 1013.5
20260831025703 86 124 4.0 8.0 0.00 0.00 0.00 50 1013.4
20260831025604 86 125 4.0 8.0 0.00 0.00 0.00 50 1013.4
20260831025503 86 125 4.0 8.0 0.00 0.00 0.00 50 1013.4
20260831025404 86 124 3.0 8.0 0.00 0.00 0.00 50 1013.4
20260831025306 86 125 4.0 8.0 0.00 0.00 0.00 50 1013.3
20260831025204 86 124 4.0 8.0 0.00 0.00 0.00 50 1013.4
20260831025104 86 125 4.0 8.0 0.00 0.00 0.00 50 1013.4
20260831024904 87 124 4.0 8.0 0.00 0.00 0.00 50 1013.3
20260831024803 86 123 4.0 8.0 0.00 0.00 0.00 49 1013.3
20260831024704 87 123 4.0 8.0 0.00 0.00 0.00 49 1013.3
20260831024604 87 122 4.0 8.0 0.00 0.00 0.00 49 1013.3
20260831024504 87 123 4.0 8.0 0.00 0.00 0.00 49 1013.3
20260831024404 87 123 4.0 8.0 0.00 0.00 0.00 49 1013.3
20260831024303 87 122 4.0 8.0 0.00 0.00 0.00 49 1013.3
20260831024204 87 122 3.0 7.0 0.00 0.00 0.00 49 1013.3
20260831024004 87 121 3.0 8.0 0.00 0.00 0.00 49 1013.2
20260831023903 87 122 3.0 8.0 0.00 0.00 0.00 49 1013.2
20260831023804 87 121 3.0 8.0 0.00 0.00 0.00 49 1013.2
20260831023703 87 122 3.0 8.0 0.00 0.00 0.00 49 1013.2
20260831023604 87 122 3.0 8.0 0.00 0.00 0.00 49 1013.2
20260831023504 87 121 3.0 8.0 0.00 0.00 0.00 49 1013.2
20260831023404 87 122 3.0 8.0 0.00 0.00 0.00 49 1013.2
20260831023203 87 122 3.0 8.0 0.00 0.00 0.00 49 1013.1
20260831023104 87 121 3.0 8.0 0.00 0.00 0.00 49 1013.1
20260831023004 87 119 3.0 5.0 0.00 0.00 0.00 49 1013.1
20260831022805 87 118 2.0 5.0 0.00 0.00 0.00 49 1013.1
20260831022706 87 119 2.0 5.0 0.00 0.00 0.00 49 1013.0
20260831022605 87 118 2.0 5.0 0.00 0.00 0.00 49 1013.0
20260831022506 87 118 2.0 5.0 0.00 0.00 0.00 49 1013.0
20260831022405 87 119 2.0 5.0 0.00 0.00 0.00 49 1013.0
20260831022306 87 119 2.0 5.0 0.00 0.00 0.00 48 1012.9
20260831022205 87 122 2.0 5.0 0.00 0.00 0.00 48 1012.9
20260831022106 87 125 2.0 5.0 0.00 0.00 0.00 48 1012.9
20260831022005 87 128 2.0 5.0 0.00 0.00 0.00 48 1012.9
20260831021906 87 129 2.0 5.0 0.00 0.00 0.00 48 1012.9
20260831021805 87 129 2.0 5.0 0.00 0.00 0.00 48 1012.8
20260831021706 87 130 2.0 5.0 0.00 0.00 0.00 48 1012.9
20260831021605 87 130 2.0 5.0 0.00 0.00 0.00 48 1012.9
20260831021406 87 129 3.0 6.0 0.00 0.00 0.00 48 1012.9
20260831021305 87 128 3.0 6.0 0.00 0.00 0.00 48 1012.9
20260831021205 87 125 3.0 6.0 0.00 0.00 0.00 48 1012.9
20260831021106 87 122 3.0 6.0 0.00 0.00 0.00 48 1012.8
20260831020906 87 112 3.0 6.0 0.00 0.00 0.00 47 1012.8
20260831020705 87 111 3.0 6.0 0.00 0.00 0.00 47 1012.9
20260831020605 87 111 3.0 6.0 0.00 0.00 0.00 47 1012.9
20260831020505 87 111 2.0 6.0 0.00 0.00 0.00 47 1012.8
20260831020405 87 110 2.0 6.0 0.00 0.00 0.00 47 1012.8
20260831020305 87 107 2.0 6.0 0.00 0.00 0.00 47 1012.8
20260831020206 87 109 2.0 6.0 0.00 0.00 0.00 47 1012.8
20260831020106 88 113 2.0 6.0 0.00 0.00 0.00 46 1012.7
20260831020005 88 119 1.0 6.0 0.00 0.00 0.00 46 1012.7
20260831015907 88 127 1.0 3.0 0.00 0.00 0.00 45 1012.7
20260831015805 88 128 1.0 3.0 0.00 0.00 0.00 45 1012.6
20260831015706 88 132 1.0 3.0 0.00 0.00 0.00 45 1012.7
20260831015605 88 133 1.0 3.0 0.00 0.00 0.00 45 1012.6
20260831015506 88 134 1.0 3.0 0.00 0.00 0.00 45 1012.6
20260831015406 88 135 2.0 3.0 0.00 0.00 0.00 45 1012.6
20260831015306 88 136 2.0 3.0 0.00 0.00 0.00 45 1012.6
20260831015206 88 137 2.0 3.0 0.00 0.00 0.00 45 1012.6
20260831015105 88 137 2.0 3.0 0.00 0.00 0.00 44 1012.6
20260831015006 88 139 2.0 3.0 0.00 0.00 0.00 44 1012.6
20260831014905 88 140 2.0 3.0 0.00 0.00 0.00 44 1012.5
20260831014706 88 140 2.0 3.0 0.00 0.00 0.00 44 1012.6
20260831014606 88 139 2.0 3.0 0.00 0.00 0.00 44 1012.6
20260831014505 88 139 2.0 3.0 0.00 0.00 0.00 44 1012.6
20260831014405 88 137 2.0 3.0 0.00 0.00 0.00 44 1012.5
20260831014306 88 137 2.0 3.0 0.00 0.00 0.00 44 1012.5
20260831014205 88 136 2.0 4.0 0.00 0.00 0.00 44 1012.5
20260831014106 88 135 2.0 4.0 0.00 0.00 0.00 44 1012.5
20260831014005 89 133 2.0 4.0 0.00 0.00 0.00 44 1012.5
20260831013906 89 130 2.0 4.0 0.00 0.00 0.00 44 1012.5
20260831013806 89 129 2.0 4.0 0.00 0.00 0.00 44 1012.5
20260831013705 89 127 2.0 4.0 0.00 0.00 0.00 44 1012.5
20260831013506 89 126 2.0 4.0 0.00 0.00 0.00 44 1012.4
20260831013405 89 126 2.0 4.0 0.00 0.00 0.00 44 1012.4
20260831013306 89 126 2.0 4.0 0.00 0.00 0.00 43 1012.4
20260831013205 89 125 2.0 3.0 0.00 0.00 0.00 44 1012.4
20260831013106 89 126 2.0 3.0 0.00 0.00 0.00 43 1012.4
20260831013005 89 129 1.0 3.0 0.00 0.00 0.00 43 1012.4
20260831012906 89 132 1.0 3.0 0.00 0.00 0.00 43 1012.4
20260831012505 90 141 2.0 3.0 0.00 0.00 0.00 43 1012.4
20260831012405 90 143 2.0 3.0 0.00 0.00 0.00 42 1012.3
20260831012306 90 144 2.0 3.0 0.00 0.00 0.00 42 1012.4
20260831012106 90 147 2.0 4.0 0.00 0.00 0.00 42 1012.3
20260831012006 90 147 2.0 4.0 0.00 0.00 0.00 42 1012.4
20260831011906 90 148 2.0 4.0 0.00 0.00 0.00 42 1012.3
20260831011605 90 150 3.0 4.0 0.00 0.00 0.00 42 1012.3
20260831011506 90 149 3.0 4.0 0.00 0.00 0.00 42 1012.3
20260831011306 90 150 3.0 6.0 0.00 0.00 0.00 42 1012.3
20260831011205 90 151 2.0 6.0 0.00 0.00 0.00 42 1012.3
20260831011006 91 150 3.0 6.0 0.00 0.00 0.00 42 1012.3
20260831010906 91 149 3.0 6.0 0.00 0.00 0.00 42 1012.3
20260831010806 91 149 3.0 6.0 0.00 0.00 0.00 42 1012.3
20260831010705 91 148 3.0 6.0 0.00 0.00 0.00 42 1012.3
20260831010606 91 147 3.0 6.0 0.00 0.00 0.00 41 1012.3
20260831010505 91 146 3.0 6.0 0.00 0.00 0.00 41 1012.2
20260831010405 91 145 3.0 6.0 0.00 0.00 0.00 41 1012.3
20260831010305 91 145 3.0 6.0 0.00 0.00 0.00 41 1012.3
20260831010205 91 143 3.0 7.0 0.00 0.00 0.00 41 1012.3
20260831010106 91 142 3.0 7.0 0.00 0.00 0.00 41 1012.3
20260831010005 92 142 3.0 7.0 0.00 0.00 0.00 41 1012.3
20260831005906 92 142 3.0 7.0 0.00 0.00 0.00 41 1012.2
20260831005805 92 142 3.0 7.0 0.00 0.00 0.00 41 1012.2
20260831005706 92 142 3.0 7.0 0.00 0.00 0.00 41 1012.2
20260831005605 92 142 3.0 7.0 0.00 0.00 0.00 41 1012.2
20260831005506 92 143 3.0 7.0 0.00 0.00 0.00 41 1012.2
20260831005306 92 143 3.0 7.0 0.00 0.00 0.00 41 1012.2
20260831005205 92 144 3.0 7.0 0.00 0.00 0.00 40 1012.2
20260831005105 92 146 3.0 7.0 0.00 0.00 0.00 40 1012.2
20260831005005 92 147 4.0 7.0 0.00 0.00 0.00 40 1012.2
20260831004905 92 146 4.0 7.0 0.00 0.00 0.00 40 1012.2
20260831004806 92 146 4.0 7.0 0.00 0.00 0.00 40 1012.2
20260831004705 92 148 4.0 7.0 0.00 0.00 0.00 40 1012.2
20260831004606 92 149 4.0 8.0 0.00 0.00 0.00 40 1012.1
20260831004505 92 147 4.0 8.0 0.00 0.00 0.00 40 1012.1
20260831004405 92 148 4.0 8.0 0.00 0.00 0.00 40 1012.1
20260831004306 92 147 4.0 8.0 0.00 0.00 0.00 40 1012.1
20260831004205 93 146 4.0 8.0 0.00 0.00 0.00 40 1012.1
20260831004106 93 147 4.0 8.0 0.00 0.00 0.00 40 1012.1
20260831003906 93 147 4.0 9.0 0.00 0.00 0.00 40 1012.1
20260831003805 93 145 4.0 9.0 0.00 0.00 0.00 40 1012.0
20260831003706 93 144 4.0 9.0 0.00 0.00 0.00 40 1012.0
20260831003605 93 141 4.0 9.0 0.00 0.00 0.00 40 1012.0
20260831003506 93 141 4.0 9.0 0.00 0.00 0.00 40 1012.0
20260831003405 93 140 4.0 9.0 0.00 0.00 0.00 40 1012.0
20260831003306 93 140 4.0 9.0 0.00 0.00 0.00 40 1011.9
20260831003205 93 139 4.0 9.0 0.00 0.00 0.00 39 1012.0
20260831003106 93 137 4.0 9.0 0.00 0.00 0.00 39 1012.0
20260831003005 93 137 4.0 10.0 0.00 0.00 0.00 39 1012.0
20260831002906 93 134 4.0 10.0 0.00 0.00 0.00 39 1012.0
20260831002805 94 134 4.0 10.0 0.00 0.00 0.00 39 1012.0
20260831002405 94 138 5.0 11.0 0.00 0.00 0.00 39 1012.1
20260831002306 94 137 5.0 11.0 0.00 0.00 0.00 39 1012.1
20260831002205 94 138 5.0 11.0 0.00 0.00 0.00 39 1012.1
20260831002106 94 140 5.0 11.0 0.00 0.00 0.00 39 1012.1
20260831002005 94 142 5.0 11.0 0.00 0.00 0.00 40 1012.1
20260831001906 94 144 5.0 11.0 0.00 0.00 0.00 40 1012.1
20260831001705 94 144 6.0 11.0 0.00 0.00 0.00 39 1012.2
20260831001405 94 139 6.0 10.0 0.00 0.00 0.00 39 1012.2
20260831001306 94 139 6.0 10.0 0.00 0.00 0.00 39 1012.2
20260831001205 94 137 6.0 10.0 0.00 0.00 0.00 39 1012.1
20260831001006 94 131 7.0 14.0 0.00 0.00 0.00 39 1012.2
20260831000905 94 131 6.0 14.0 0.00 0.00 0.00 39 1012.2
20260831000805 95 132 7.0 14.0 0.00 0.00 0.00 39 1012.2
20260831000605 95 133 6.0 14.0 0.00 0.00 0.00 39 1012.3
20260831000406 95 135 6.0 14.0 0.00 0.00 0.00 38 1012.2
20260831000305 95 136 6.0 14.0 0.00 0.00 0.00 38 1012.2
20260831000206 95 138 6.0 14.0 0.00 0.00 0.00 38 1012.2
20260831000105 95 141 5.0 10.0 0.00 0.00 0.00 38 1012.3
20260831000006 95 143 5.0 10.0 0.00 0.00 0.00 38 1012.2
20260830235706 95 139 6.0 10.0 0.00 0.00 0.00 38 1012.2
20260830235605 95 137 6.0 10.0 0.00 0.00 0.00 38 1012.2
20260830235506 95 136 6.0 10.0 0.00 0.00 0.00 38 1012.2
20260830235405 95 135 6.0 10.0 0.00 0.00 0.00 38 1012.2
20260830235306 95 132 6.0 11.0 0.00 0.00 0.00 37 1012.2
20260830235206 95 131 6.0 11.0 0.00 0.00 0.00 37 1012.2
20260830235006 95 133 6.0 11.0 0.00 0.00 0.00 37 1012.3
20260830234905 95 132 6.0 11.0 0.00 0.00 0.00 37 1012.3
20260830234705 95 132 6.0 11.0 0.00 0.00 0.00 37 1012.3
20260830234605 95 133 6.0 11.0 0.00 0.00 0.00 37 1012.3
20260830234506 96 132 6.0 13.0 0.00 0.00 0.00 37 1012.3
20260830234405 96 132 6.0 13.0 0.00 0.00 0.00 37 1012.3
20260830234306 96 133 6.0 13.0 0.00 0.00 0.00 37 1012.3
20260830234106 96 130 6.0 13.0 0.00 0.00 0.00 37 1012.2
20260830234006 96 127 6.0 13.0 0.00 0.00 0.00 37 1012.3
20260830233905 96 126 6.0 13.0 0.00 0.00 0.00 37 1012.3
20260830233705 96 126 7.0 13.0 0.00 0.00 0.00 37 1012.3
20260830233605 96 125 7.0 13.0 0.00 0.00 0.00 37 1012.3
20260830233505 96 125 7.0 11.0 0.00 0.00 0.00 36 1012.3
20260830233406 96 125 7.0 13.0 0.00 0.00 0.00 36 1012.3
20260830233305 96 124 7.0 14.0 0.00 0.00 0.00 36 1012.3
20260830233205 96 124 7.0 14.0 0.00 0.00 0.00 37 1012.3
20260830233105 96 124 7.0 14.0 0.00 0.00 0.00 37 1012.2
20260830233006 96 124 7.0 14.0 0.00 0.00 0.00 37 1012.2
20260830232905 96 125 7.0 14.0 0.00 0.00 0.00 37 1012.2
20260830232805 96 124 7.0 14.0 0.00 0.00 0.00 37 1012.3
20260830232705 96 123 7.0 14.0 0.00 0.00 0.00 37 1012.2
20260830232605 96 123 7.0 14.0 0.00 0.00 0.00 37 1012.3
20260830232505 96 125 7.0 14.0 0.00 0.00 0.00 37 1012.2
20260830232306 96 129 7.0 12.0 0.00 0.00 0.00 37 1012.2
20260830232205 96 128 7.0 12.0 0.00 0.00 0.00 38 1012.3
20260830232105 96 129 7.0 12.0 0.00 0.00 0.00 38 1012.3
20260830232005 96 129 7.0 12.0 0.00 0.00 0.00 38 1012.3
20260830231905 96 128 7.0 12.0 0.00 0.00 0.00 37 1012.3
20260830231805 96 129 7.0 12.0 0.00 0.00 0.00 37 1012.3
20260830231606 96 131 8.0 14.0 0.00 0.00 0.00 37 1012.3
20260830231406 96 124 8.0 14.0 0.00 0.00 0.00 37 1012.3
20260830231306 96 122 9.0 14.0 0.00 0.00 0.00 37 1012.3
20260830231205 97 121 8.0 14.0 0.00 0.00 0.00 37 1012.2
20260830231005 97 119 8.0 15.0 0.00 0.00 0.00 37 1012.3
20260830230905 97 121 8.0 15.0 0.00 0.00 0.00 36 1012.2
20260830230705 97 118 9.0 15.0 0.00 0.00 0.00 36 1012.2
20260830230605 97 115 8.0 16.0 0.00 0.00 0.00 36 1012.1
20260830230405 97 116 8.0 16.0 0.00 0.00 0.00 36 1012.2
20260830230105 97 112 9.0 16.0 0.00 0.00 0.00 37 1012.2
20260830230005 97 111 9.0 16.0 0.00 0.00 0.00 36 1012.2
20260830225905 97 110 9.0 16.0 0.00 0.00 0.00 36 1012.2
20260830225805 97 108 8.0 16.0 0.00 0.00 0.00 36 1012.2
20260830225706 98 110 8.0 16.0 0.00 0.00 0.00 37 1012.2
20260830225605 97 113 8.0 16.0 0.00 0.00 0.00 37 1012.2
20260830225506 98 115 8.0 16.0 0.00 0.00 0.00 37 1012.2
20260830225306 98 120 8.0 16.0 0.00 0.00 0.00 37 1012.2
20260830224904 98 127 8.0 14.0 0.00 0.00 0.00 36 1012.2
20260830224807 98 128 7.0 14.0 0.00 0.00 0.00 36 1012.3
20260830224705 98 132 7.0 14.0 0.00 0.00 0.00 36 1012.2
20260830224605 98 133 7.0 14.0 0.00 0.00 0.00 36 1012.3
20260830224505 98 132 7.0 14.0 0.00 0.00 0.00 36 1012.2
20260830224405 98 134 6.0 14.0 0.00 0.00 0.00 36 1012.2
20260830224306 98 136 6.0 14.0 0.00 0.00 0.00 36 1012.2
20260830224205 98 137 6.0 14.0 0.00 0.00 0.00 36 1012.3
20260830224105 98 136 6.0 14.0 0.00 0.00 0.00 36 1012.2
20260830224005 98 147 6.0 14.0 0.00 0.00 0.00 33 1012.3
20260830223906 99 160 6.0 13.0 0.00 0.00 0.00 33 1012.2
20260830223706 98 165 7.0 14.0 0.00 0.00 0.00 33 1012.2
20260830223605 98 164 7.0 14.0 0.00 0.00 0.00 34 1012.2
20260830223505 98 165 7.0 14.0 0.00 0.00 0.00 34 1012.3
20260830223405 98 165 7.0 14.0 0.00 0.00 0.00 33 1012.2
20260830223305 98 164 7.0 14.0 0.00 0.00 0.00 33 1012.2
20260830223205 99 162 7.0 14.0 0.00 0.00 0.00 33 1012.2
20260830223105 99 157 7.0 14.0 0.00 0.00 0.00 33 1012.3
20260830223005 99 153 7.0 14.0 0.00 0.00 0.00 34 1012.2
20260830222905 99 144 7.0 16.0 0.00 0.00 0.00 34 1012.2
20260830222805 99 141 7.0 16.0 0.00 0.00 0.00 34 1012.3
20260830222705 99 137 6.0 16.0 0.00 0.00 0.00 35 1012.3
20260830222605 98 136 6.0 16.0 0.00 0.00 0.00 35 1012.3
20260830222405 98 141 6.0 16.0 0.00 0.00 0.00 36 1012.3
20260830222306 98 140 6.0 16.0 0.00 0.00 0.00 36 1012.4
20260830222205 99 141 5.0 16.0 0.00 0.00 0.00 36 1012.3
20260830222105 99 145 6.0 16.0 0.00 0.00 0.00 35 1012.3
20260830222006 99 150 5.0 16.0 0.00 0.00 0.00 35 1012.3
20260830221905 99 163 5.0 10.0 0.00 0.00 0.00 35 1012.4
20260830221805 99 172 6.0 10.0 0.00 0.00 0.00 35 1012.4
20260830221705 99 177 6.0 11.0 0.00 0.00 0.00 35 1012.4
20260830221606 99 183 6.0 11.0 0.00 0.00 0.00 35 1012.4
20260830221505 99 186 6.0 13.0 0.00 0.00 0.00 35 1012.4
20260830221305 99 193 7.0 13.0 0.00 0.00 0.00 34 1012.4
20260830221205 99 198 7.0 13.0 0.00 0.00 0.00 35 1012.4
20260830221105 99 199 7.0 13.0 0.00 0.00 0.00 35 1012.4
20260830221005 99 201 7.0 13.0 0.00 0.00 0.00 35 1012.4
20260830220905 98 194 6.0 13.0 0.00 0.00 0.00 35 1012.4
20260830220805 98 189 6.0 13.0 0.00 0.00 0.00 35 1012.4
20260830220705 98 184 6.0 13.0 0.00 0.00 0.00 35 1012.4
20260830220605 98 177 5.0 13.0 0.00 0.00 0.00 35 1012.4
20260830220504 98 171 5.0 12.0 0.00 0.00 0.00 35 1012.4
20260830220405 98 166 5.0 11.0 0.00 0.00 0.00 34 1012.4
20260830220306 99 158 5.0 10.0 0.00 0.00 0.00 34 1012.4
20260830220205 99 149 5.0 10.0 0.00 0.00 0.00 34 1012.4
20260830220005 98 139 5.0 10.0 0.00 0.00 0.00 34 1012.4
20260830215905 99 141 5.0 10.0 0.00 0.00 0.00 34 1012.4
20260830215805 99 144 5.0 12.0 0.00 0.00 0.00 34 1012.5
20260830215706 99 146 5.0 12.0 0.00 0.00 0.00 34 1012.5
20260830215605 99 147 5.0 12.0 0.00 0.00 0.00 35 1012.5
20260830215506 99 149 6.0 12.0 0.00 0.00 0.00 35 1012.5
20260830215405 99 150 6.0 12.0 0.00 0.00 0.00 35 1012.4
20260830215306 99 151 6.0 12.0 0.00 0.00 0.00 35 1012.5
20260830215205 99 146 6.0 13.0 0.00 0.00 0.00 36 1012.5
20260830215106 98 142 7.0 15.0 0.00 0.00 0.00 36 1012.5
20260830215006 98 138 7.0 15.0 0.00 0.00 0.00 35 1012.4
20260830214905 98 138 7.0 15.0 0.00 0.00 0.00 35 1012.5
20260830214605 98 140 8.0 15.0 0.00 0.00 0.00 36 1012.5
20260830214505 98 138 8.0 15.0 0.00 0.00 0.00 36 1012.5
20260830214305 98 136 7.0 15.0 0.00 0.00 0.00 36 1012.6
20260830214105 98 149 7.0 13.0 0.00 0.00 0.00 36 1012.6
20260830214005 98 157 7.0 12.0 0.00 0.00 0.00 36 1012.6
20260830213905 98 161 7.0 12.0 0.00 0.00 0.00 36 1012.6
20260830213806 98 163 7.0 12.0 0.00 0.00 0.00 36 1012.7
20260830213705 98 161 6.0 12.0 0.00 0.00 0.00 36 1012.6
20260830213606 97 160 6.0 11.0 0.00 0.00 0.00 37 1012.6
20260830213505 97 163 6.0 11.0 0.00 0.00 0.00 37 1012.6
20260830213406 96 166 6.0 11.0 0.00 0.00 0.00 37 1012.6
20260830213205 96 166 7.0 12.0 0.00 0.00 0.00 36 1012.7
20260830213105 96 165 7.0 14.0 0.00 0.00 0.00 36 1012.7
20260830213005 96 165 7.0 14.0 0.00 0.00 0.00 36 1012.8
20260830212912 96 161 7.0 14.0 0.00 0.00 0.00 36 1012.8
20260830212805 97 161 6.0 14.0 0.00 0.00 0.00 36 1012.7
20260830212705 97 160 6.0 14.0 0.00 0.00 0.00 36 1012.7
20260830212605 97 160 6.0 14.0 0.00 0.00 0.00 36 1012.7
20260830212505 97 161 6.0 14.0 0.00 0.00 0.00 36 1012.7
20260830212405 96 161 6.0 14.0 0.00 0.00 0.00 37 1012.7
20260830212205 96 156 6.0 14.0 0.00 0.00 0.00 37 1012.8
20260830212107 96 147 5.0 13.0 0.00 0.00 0.00 37 1012.7
20260830212005 96 136 5.0 13.0 0.00 0.00 0.00 37 1012.7
20260830211805 96 130 6.0 13.0 0.00 0.00 0.00 36 1012.8
20260830211605 96 128 6.0 13.0 0.00 0.00 0.00 36 1012.8
20260830211506 96 124 6.0 13.0 0.00 0.00 0.00 36 1012.9
20260830211305 96 122 6.0 13.0 0.00 0.00 0.00 36 1012.9
20260830211205 96 125 6.0 13.0 0.00 0.00 0.00 35 1012.9
20260830211005 97 134 7.0 13.0 0.00 0.00 0.00 35 1013.0
20260830210905 97 136 7.0 15.0 0.00 0.00 0.00 37 1013.0
20260830210805 98 143 7.0 15.0 0.00 0.00 0.00 37 1012.9
20260830210705 98 144 7.0 15.0 0.00 0.00 0.00 36 1013.0
20260830210605 98 145 7.0 15.0 0.00 0.00 0.00 36 1013.0
20260830210505 98 146 7.0 15.0 0.00 0.00 0.00 36 1013.0
20260830210404 98 147 7.0 15.0 0.00 0.00 0.00 37 1013.0
20260830210305 97 148 6.0 15.0 0.00 0.00 0.00 36 1013.1
20260830210106 97 145 7.0 17.0 0.00 0.00 0.00 36 1013.1
20260830210005 98 147 7.0 17.0 0.00 0.00 0.00 35 1013.1
20260830205805 98 153 6.0 17.0 0.00 0.00 0.00 36 1013.1
20260830205705 99 153 6.0 17.0 0.00 0.00 0.00 37 1013.1
20260830205605 99 149 7.0 17.0 0.00 0.00 0.00 35 1013.1
20260830205505 99 146 7.0 17.0 0.00 0.00 0.00 35 1013.2
20260830205405 99 144 7.0 17.0 0.00 0.00 0.00 34 1013.2
20260830205306 100 142 7.0 17.0 0.00 0.00 0.00 34 1013.2
20260830205205 100 141 6.0 17.0 0.00 0.00 0.00 34 1013.2
20260830205105 100 144 6.0 13.0 0.00 0.00 0.00 35 1013.2
20260830205005 100 141 6.0 13.0 0.00 0.00 0.00 34 1013.2
20260830204905 99 136 6.0 13.0 0.00 0.00 0.00 36 1013.2
20260830204804 99 134 6.0 15.0 0.00 0.00 0.00 35 1013.2
20260830204705 99 143 6.0 15.0 0.00 0.00 0.00 34 1013.3
20260830204604 100 151 6.0 15.0 0.00 0.00 0.00 34 1013.2
20260830204505 99 155 6.0 15.0 0.00 0.00 0.00 35 1013.3
20260830204405 99 156 6.0 15.0 0.00 0.00 0.00 34 1013.3
20260830204305 100 153 6.0 15.0 0.00 0.00 0.00 33 1013.3
20260830204205 100 148 6.0 15.0 0.00 0.00 0.00 33 1013.4
20260830204105 100 148 6.0 15.0 0.00 0.00 0.00 33 1013.4
20260830204004 100 150 5.0 15.0 0.00 0.00 0.00 33 1013.4
20260830203805 100 157 4.0 14.0 0.00 0.00 0.00 33 1013.3
20260830203705 100 140 4.0 12.0 0.00 0.00 0.00 35 1013.3
20260830203605 100 124 4.0 12.0 0.00 0.00 0.00 35 1013.4
20260830203505 100 125 5.0 15.0 0.00 0.00 0.00 35 1013.4
20260830203405 99 130 5.0 15.0 0.00 0.00 0.00 36 1013.4
20260830203305 99 134 5.0 15.0 0.00 0.00 0.00 36 1013.4
20260830203105 99 143 7.0 15.0 0.00 0.00 0.00 34 1013.4
20260830203005 99 139 7.0 15.0 0.00 0.00 0.00 34 1013.5
20260830202906 99 137 8.0 16.0 0.00 0.00 0.00 34 1013.5
20260830202805 99 133 8.0 16.0 0.00 0.00 0.00 35 1013.5
20260830202705 99 135 8.0 16.0 0.00 0.00 0.00 35 1013.5
20260830202605 99 138 9.0 16.0 0.00 0.00 0.00 35 1013.5
20260830202505 99 140 8.0 16.0 0.00 0.00 0.00 34 1013.6
20260830202405 99 141 8.0 16.0 0.00 0.00 0.00 34 1013.6
20260830202306 99 143 8.0 16.0 0.00 0.00 0.00 34 1013.6
20260830202205 99 145 7.0 16.0 0.00 0.00 0.00 34 1013.7
20260830202106 99 150 7.0 16.0 0.00 0.00 0.00 34 1013.6
20260830202005 99 158 7.0 16.0 0.00 0.00 0.00 33 1013.6
20260830201905 99 166 7.0 15.0 0.00 0.00 0.00 33 1013.7
20260830201805 99 173 7.0 15.0 0.00 0.00 0.00 34 1013.7
20260830201705 99 176 7.0 15.0 0.00 0.00 0.00 35 1013.7
20260830201605 99 179 6.0 15.0 0.00 0.00 0.00 35 1013.8
20260830201506 99 178 6.0 15.0 0.00 0.00 0.00 36 1013.7
20260830201405 98 176 6.0 14.0 0.00 0.00 0.00 36 1013.7
20260830201305 98 169 6.0 14.0 0.00 0.00 0.00 34 1013.8
20260830201105 99 153 6.0 14.0 0.00 0.00 0.00 34 1013.8
20260830200905 99 137 5.0 14.0 0.00 0.00 0.00 35 1013.8
20260830200804 99 127 5.0 12.0 0.00 0.00 0.00 35 1013.8
20260830200605 98 119 6.0 12.0 0.00 0.00 0.00 38 1013.8
20260830200505 98 120 6.0 12.0 0.00 0.00 0.00 38 1013.8
20260830200404 97 121 5.0 12.0 0.00 0.00 0.00 38 1013.8
20260830200305 96 123 6.0 12.0 0.00 0.00 0.00 38 1013.8
20260830200205 96 126 6.0 14.0 0.00 0.00 0.00 39 1013.8
20260830200105 96 131 6.0 14.0 0.00 0.00 0.00 38 1013.9
20260830200005 96 130 7.0 14.0 0.00 0.00 0.00 38 1013.9
20260830195907 96 137 7.0 15.0 0.00 0.00 0.00 37 1013.9
20260830195805 97 141 7.0 15.0 0.00 0.00 0.00 37 1013.9
20260830195605 97 136 7.0 15.0 0.00 0.00 0.00 37 1013.9
20260830195505 97 134 7.0 15.0 0.00 0.00 0.00 36 1013.9
20260830195305 98 131 6.0 15.0 0.00 0.00 0.00 35 1014.0
20260830195205 98 132 6.0 15.0 0.00 0.00 0.00 35 1013.9
20260830195105 98 133 5.0 15.0 0.00 0.00 0.00 36 1014.0
20260830195005 98 137 5.0 15.0 0.00 0.00 0.00 36 1014.0
20260830194905 98 134 4.0 14.0 0.00 0.00 0.00 38 1014.0
20260830194804 97 131 4.0 10.0 0.00 0.00 0.00 38 1014.0
20260830194705 97 149 5.0 12.0 0.00 0.00 0.00 38 1014.1
20260830194605 97 157 5.0 13.0 0.00 0.00 0.00 39 1014.0
20260830194505 97 158 5.0 13.0 0.00 0.00 0.00 37 1014.1
20260830194405 97 159 5.0 13.0 0.00 0.00 0.00 39 1014.1
20260830194305 97 161 6.0 13.0 0.00 0.00 0.00 39 1014.1
20260830194205 98 157 6.0 13.0 0.00 0.00 0.00 39 1014.2
20260830194105 98 153 7.0 13.0 0.00 0.00 0.00 38 1014.2
20260830194005 98 156 7.0 13.0 0.00 0.00 0.00 38 1014.2
20260830193904 98 155 7.0 13.0 0.00 0.00 0.00 38 1014.2
20260830193705 98 154 7.0 13.0 0.00 0.00 0.00 38 1014.2
20260830193604 98 158 7.0 13.0 0.00 0.00 0.00 38 1014.3
20260830193505 98 164 7.0 13.0 0.00 0.00 0.00 38 1014.2
20260830193405 98 167 7.0 13.0 0.00 0.00 0.00 37 1014.3
20260830193305 98 168 7.0 13.0 0.00 0.00 0.00 37 1014.3
20260830193204 98 170 7.0 13.0 0.00 0.00 0.00 36 1014.3
20260830193105 99 169 7.0 13.0 0.00 0.00 0.00 34 1014.4
20260830193006 99 163 7.0 13.0 0.00 0.00 0.00 34 1014.4
20260830192905 99 166 7.0 13.0 0.00 0.00 0.00 33 1014.4
20260830192705 99 167 7.0 11.0 0.00 0.00 0.00 35 1014.4
20260830192605 99 166 6.0 12.0 0.00 0.00 0.00 35 1014.4
20260830192505 99 157 6.0 12.0 0.00 0.00 0.00 34 1014.4
20260830192405 99 152 6.0 12.0 0.00 0.00 0.00 35 1014.4
20260830192305 98 149 6.0 12.0 0.00 0.00 0.00 36 1014.4
20260830192205 98 146 6.0 12.0 0.00 0.00 0.00 36 1014.5
20260830192105 99 145 6.0 12.0 0.00 0.00 0.00 36 1014.5
20260830192005 99 144 6.0 12.0 0.00 0.00 0.00 36 1014.5
20260830191905 98 137 6.0 14.0 0.00 0.00 0.00 36 1014.5
20260830191805 98 129 6.0 14.0 0.00 0.00 0.00 36 1014.4
20260830191705 98 124 7.0 14.0 0.00 0.00 0.00 38 1014.4
20260830191605 98 123 7.0 15.0 0.00 0.00 0.00 38 1014.5
20260830191506 97 126 7.0 15.0 0.00 0.00 0.00 39 1014.5
20260830191405 97 126 7.0 15.0 0.00 0.00 0.00 38 1014.5
20260830191306 97 126 8.0 15.0 0.00 0.00 0.00 39 1014.6
20260830191205 97 127 8.0 15.0 0.00 0.00 0.00 40 1014.6
20260830191104 97 129 8.0 15.0 0.00 0.00 0.00 40 1014.6
20260830191005 97 131 7.0 15.0 0.00 0.00 0.00 40 1014.6
20260830190906 97 131 7.0 15.0 0.00 0.00 0.00 40 1014.7
20260830190705 96 135 6.0 15.0 0.00 0.00 0.00 41 1014.6
20260830190505 96 130 6.0 15.0 0.00 0.00 0.00 41 1014.7
20260830190404 97 133 5.0 15.0 0.00 0.00 0.00 41 1014.8
20260830190305 98 136 5.0 15.0 0.00 0.00 0.00 40 1014.8
20260830190205 98 141 5.0 15.0 0.00 0.00 0.00 39 1014.8
20260830190105 98 149 5.0 15.0 0.00 0.00 0.00 40 1014.8
20260830190005 98 155 5.0 15.0 0.00 0.00 0.00 41 1014.8
20260830185905 97 157 5.0 15.0 0.00 0.00 0.00 41 1014.9
20260830185805 97 164 5.0 15.0 0.00 0.00 0.00 41 1014.9
20260830185705 96 167 6.0 13.0 0.00 0.00 0.00 42 1014.8
20260830185306 97 171 8.0 15.0 0.00 0.00 0.00 41 1014.9
20260830185204 97 169 9.0 15.0 0.00 0.00 0.00 40 1015.0
20260830185105 97 165 9.0 15.0 0.00 0.00 0.00 40 1015.0
20260830185004 97 162 9.0 15.0 0.00 0.00 0.00 41 1015.0
20260830184905 97 159 9.0 15.0 0.00 0.00 0.00 41 1015.0
20260830184705 97 152 9.0 15.0 0.00 0.00 0.00 40 1015.1
20260830184605 97 150 9.0 15.0 0.00 0.00 0.00 41 1015.1
20260830184505 96 147 9.0 15.0 0.00 0.00 0.00 41 1015.0
20260830184404 96 142 8.0 15.0 0.00 0.00 0.00 41 1015.1
20260830184305 96 136 8.0 15.0 0.00 0.00 0.00 41 1015.0
20260830184204 96 135 8.0 15.0 0.00 0.00 0.00 41 1015.1
20260830184005 96 130 8.0 15.0 0.00 0.00 0.00 40 1015.0
20260830183905 97 133 8.0 15.0 0.00 0.00 0.00 40 1015.0
20260830183804 97 137 7.0 15.0 0.00 0.00 0.00 40 1015.0
20260830183505 97 140 7.0 15.0 0.00 0.00 0.00 42 1015.0
20260830183405 96 146 7.0 15.0 0.00 0.00 0.00 42 1015.1
20260830183305 96 149 6.0 15.0 0.00 0.00 0.00 41 1015.1
20260830183204 96 147 6.0 15.0 0.00 0.00 0.00 41 1015.1
20260830183105 96 144 6.0 15.0 0.00 0.00 0.00 43 1015.1
20260830183004 96 140 7.0 13.0 0.00 0.00 0.00 43 1015.1
20260830182905 96 134 7.0 14.0 0.00 0.00 0.00 43 1015.1
20260830182805 96 130 7.0 14.0 0.00 0.00 0.00 43 1015.2
20260830182705 96 133 7.0 14.0 0.00 0.00 0.00 42 1015.1
20260830182605 96 135 7.0 14.0 0.00 0.00 0.00 42 1015.2
20260830182506 96 139 6.0 14.0 0.00 0.00 0.00 42 1015.2
20260830182405 96 138 6.0 14.0 0.00 0.00 0.00 44 1015.1
20260830182205 96 149 6.0 14.0 0.00 0.00 0.00 43 1015.2
20260830182004 96 181 5.0 14.0 0.00 0.00 0.00 43 1015.3
20260830181804 96 203 5.0 13.0 0.00 0.00 0.00 43 1015.3
20260830181605 96 208 6.0 13.0 0.00 0.00 0.00 43 1015.3
20260830181505 96 205 6.0 13.0 0.00 0.00 0.00 42 1015.4
20260830181406 96 199 7.0 13.0 0.00 0.00 0.00 42 1015.4
20260830181305 96 196 6.0 13.0 0.00 0.00 0.00 41 1015.4
20260830181205 96 188 6.0 13.0 0.00 0.00 0.00 42 1015.5
20260830181105 96 179 6.0 12.0 0.00 0.00 0.00 41 1015.5
20260830180905 96 166 5.0 12.0 0.00 0.00 0.00 41 1015.6
20260830180805 96 156 5.0 11.0 0.00 0.00 0.00 38 1015.6
20260830180605 96 150 5.0 10.0 0.00 0.00 0.00 42 1015.7
20260830180404 96 148 5.0 10.0 0.00 0.00 0.00 42 1015.7
20260830180305 96 148 5.0 10.0 0.00 0.00 0.00 43 1015.7
20260830180204 95 145 6.0 11.0 0.00 0.00 0.00 41 1015.7
20260830180105 95 147 6.0 11.0 0.00 0.00 0.00 41 1015.8
20260830180004 95 152 7.0 14.0 0.00 0.00 0.00 41 1015.8
20260830175905 96 147 7.0 14.0 0.00 0.00 0.00 42 1015.9
20260830175804 95 143 7.0 14.0 0.00 0.00 0.00 40 1015.8
20260830175705 95 140 7.0 14.0 0.00 0.00 0.00 40 1015.8
20260830175605 95 137 7.0 14.0 0.00 0.00 0.00 41 1016.0
20260830175505 96 138 7.0 14.0 0.00 0.00 0.00 41 1016.0
20260830175404 96 139 6.0 14.0 0.00 0.00 0.00 41 1015.9
20260830175306 96 144 6.0 14.0 0.00 0.00 0.00 41 1015.9
20260830175204 96 151 6.0 14.0 0.00 0.00 0.00 42 1015.9
20260830175005 96 165 5.0 14.0 0.00 0.00 0.00 43 1016.1
20260830174905 96 171 5.0 14.0 0.00 0.00 0.00 43 1016.0
20260830174704 95 182 6.0 11.0 0.00 0.00 0.00 45 1016.0
20260830174605 95 179 6.0 13.0 0.00 0.00 0.00 46 1016.0
20260830174405 95 185 7.0 13.0 0.00 0.00 0.00 46 1016.1
20260830174305 95 186 7.0 13.0 0.00 0.00 0.00 46 1016.0
20260830174204 95 186 7.0 17.0 0.00 0.00 0.00 46 1016.1
20260830174105 95 179 7.0 17.0 0.00 0.00 0.00 45 1016.1
20260830174005 95 171 8.0 17.0 0.00 0.00 0.00 45 1016.1
20260830173905 95 162 8.0 17.0 0.00 0.00 0.00 45 1016.2
20260830173806 95 158 8.0 17.0 0.00 0.00 0.00 45 1016.2
20260830173705 95 158 8.0 17.0 0.00 0.00 0.00 44 1016.2
20260830173604 95 161 7.0 17.0 0.00 0.00 0.00 44 1016.2
20260830173505 95 155 7.0 17.0 0.00 0.00 0.00 44 1016.2
20260830173405 94 152 7.0 17.0 0.00 0.00 0.00 44 1016.2
20260830173204 95 154 7.0 13.0 0.00 0.00 0.00 44 1016.2
20260830173105 95 156 6.0 13.0 0.00 0.00 0.00 45 1016.2
20260830172905 94 169 6.0 13.0 0.00 0.00 0.00 46 1016.2
20260830172804 94 172 5.0 11.0 0.00 0.00 0.00 46 1016.3
20260830172604 94 173 5.0 11.0 0.00 0.00 0.00 46 1016.3
20260830172505 94 173 5.0 11.0 0.00 0.00 0.00 46 1016.3
20260830172405 94 174 5.0 11.0 0.00 0.00 0.00 47 1016.3
20260830172306 94 166 6.0 12.0 0.00 0.00 0.00 47 1016.4
20260830172004 94 167 6.0 13.0 0.00 0.00 0.00 47 1016.4
20260830171905 94 173 7.0 13.0 0.00 0.00 0.00 47 1016.5
20260830171804 93 177 7.0 13.0 0.00 0.00 0.00 47 1016.5
20260830171705 93 176 7.0 13.0 0.00 0.00 0.00 46 1016.5
20260830171604 94 174 7.0 13.0 0.00 0.00 0.00 46 1016.5
20260830171404 94 178 6.0 13.0 0.00 0.00 0.00 45 1016.5
20260830171304 94 179 5.0 13.0 0.00 0.00 0.00 45 1016.6
20260830171205 94 185 5.0 13.0 0.00 0.00 0.00 45 1016.5
20260830171104 94 187 5.0 13.0 0.00 0.00 0.00 46 1016.5
20260830171005 94 189 5.0 13.0 0.00 0.00 0.00 45 1016.6
20260830170905 94 185 4.0 13.0 0.00 0.00 0.00 45 1016.6
20260830170804 94 182 5.0 11.0 0.00 0.00 0.00 46 1016.5
20260830170705 94 176 5.0 11.0 0.00 0.00 0.00 46 1016.5
20260830170605 94 175 5.0 11.0 0.00 0.00 0.00 49 1016.5
20260830170404 94 166 5.0 11.0 0.00 0.00 0.00 49 1016.5
20260830170305 93 164 5.0 11.0 0.00 0.00 0.00 49 1016.6
20260830170205 93 155 5.0 11.0 0.00 0.00 0.00 50 1016.6
20260830170105 93 150 5.0 11.0 0.00 0.00 0.00 50 1016.6
20260830170004 92 150 5.0 11.0 0.00 0.00 0.00 51 1016.6
20260830165805 93 157 5.0 10.0 0.00 0.00 0.00 49 1016.6
20260830165704 93 164 5.0 10.0 0.00 0.00 0.00 49 1016.7
20260830165605 93 163 5.0 10.0 0.00 0.00 0.00 49 1016.7
20260830165405 93 161 5.0 11.0 0.00 0.00 0.00 49 1016.7
20260830165306 93 161 5.0 11.0 0.00 0.00 0.00 49 1016.8
20260830165205 93 162 5.0 11.0 0.00 0.00 0.00 50 1016.9
20260830165105 92 164 5.0 11.0 0.00 0.00 0.00 49 1016.8
20260830164905 92 151 5.0 11.0 0.00 0.00 0.00 49 1016.8
20260830164805 92 143 5.0 11.0 0.00 0.00 0.00 50 1016.8
20260830164705 92 140 5.0 11.0 0.00 0.00 0.00 51 1016.8
20260830164505 92 162 5.0 9.0 0.00 0.00 0.00 51 1016.8
20260830164305 92 167 5.0 12.0 0.00 0.00 0.00 52 1016.8
20260830164204 92 159 5.0 12.0 0.00 0.00 0.00 53 1016.9
20260830164004 91 150 5.0 12.0 0.00 0.00 0.00 53 1016.9
20260830163905 91 146 5.0 12.0 0.00 0.00 0.00 52 1016.8
20260830163804 91 149 5.0 12.0 0.00 0.00 0.00 51 1016.8
20260830163605 92 140 4.0 12.0 0.00 0.00 0.00 53 1016.9
20260830163405 91 126 5.0 11.0 0.00 0.00 0.00 52 1016.8
20260830163305 91 132 5.0 11.0 0.00 0.00 0.00 52 1016.8
20260830163204 91 137 5.0 11.0 0.00 0.00 0.00 53 1016.9
20260830163105 91 139 5.0 11.0 0.00 0.00 0.00 52 1016.9
20260830163005 91 142 5.0 11.0 0.00 0.00 0.00 52 1017.0
20260830162905 91 147 5.0 11.0 0.00 0.00 0.00 52 1016.9
20260830162805 91 150 5.0 11.0 0.00 0.00 0.00 54 1017.0
20260830162707 91 153 6.0 11.0 0.00 0.00 0.00 53 1017.0
20260830162605 91 157 6.0 11.0 0.00 0.00 0.00 52 1017.0
20260830162404 91 163 6.0 11.0 0.00 0.00 0.00 53 1017.0
20260830162306 91 165 6.0 11.0 0.00 0.00 0.00 53 1017.0
20260830162205 91 164 6.0 11.0 0.00 0.00 0.00 53 1016.9
20260830162104 91 165 6.0 11.0 0.00 0.00 0.00 53 1017.0
20260830161905 91 162 6.0 11.0 0.00 0.00 0.00 53 1016.9
20260830161804 91 162 7.0 11.0 0.00 0.00 0.00 54 1017.0
20260830161705 91 165 6.0 12.0 0.00 0.00 0.00 53 1017.0
20260830161604 91 165 6.0 12.0 0.00 0.00 0.00 53 1017.0
20260830161504 91 163 6.0 12.0 0.00 0.00 0.00 53 1017.0
20260830161405 91 164 6.0 12.0 0.00 0.00 0.00 53 1017.0
20260830161304 91 162 5.0 12.0 0.00 0.00 0.00 53 1016.9
20260830161204 90 167 5.0 12.0 0.00 0.00 0.00 53 1017.0
20260830161105 90 171 5.0 12.0 0.00 0.00 0.00 53 1017.0
20260830160704 90 183 5.0 9.0 0.00 0.00 0.00 54 1017.0
20260830160604 90 184 5.0 9.0 0.00 0.00 0.00 54 1017.0
20260830160505 90 188 5.0 9.0 0.00 0.00 0.00 54 1017.0
20260830160404 90 193 5.0 9.0 0.00 0.00 0.00 53 1017.0
20260830160305 90 197 5.0 9.0 0.00 0.00 0.00 53 1017.0
20260830160205 91 196 6.0 9.0 0.00 0.00 0.00 53 1017.0
20260830160104 91 193 6.0 9.0 0.00 0.00 0.00 53 1017.0
20260830160005 91 192 6.0 9.0 0.00 0.00 0.00 53 1017.0
20260830155904 90 189 6.0 10.0 0.00 0.00 0.00 54 1017.0
20260830155805 90 185 6.0 10.0 0.00 0.00 0.00 55 1017.0
20260830155705 90 184 6.0 10.0 0.00 0.00 0.00 55 1016.9
20260830155604 89 183 6.0 10.0 0.00 0.00 0.00 55 1016.9
20260830155505 89 179 6.0 10.0 0.00 0.00 0.00 55 1017.0
20260830155404 89 176 6.0 10.0 0.00 0.00 0.00 56 1016.9
20260830155306 89 174 6.0 11.0 0.00 0.00 0.00 57 1017.0
20260830155204 89 172 6.0 11.0 0.00 0.00 0.00 56 1016.9
20260830155105 89 169 6.0 11.0 0.00 0.00 0.00 56 1016.9
20260830155004 89 165 6.0 11.0 0.00 0.00 0.00 56 1016.9
20260830154905 89 163 5.0 11.0 0.00 0.00 0.00 56 1016.9
20260830154804 89 161 5.0 11.0 0.00 0.00 0.00 57 1017.0
20260830154705 89 160 5.0 11.0 0.00 0.00 0.00 57 1016.9
20260830154604 88 158 5.0 11.0 0.00 0.00 0.00 58 1016.9
20260830154505 88 161 5.0 11.0 0.00 0.00 0.00 58 1017.0
20260830154305 89 160 5.0 11.0 0.00 0.00 0.00 58 1017.0
20260830154204 88 159 5.0 10.0 0.00 0.00 0.00 58 1017.0
20260830154005 88 165 5.0 10.0 0.00 0.00 0.00 59 1017.0
20260830153904 88 164 6.0 10.0 0.00 0.00 0.00 59 1017.0
20260830153805 88 168 6.0 11.0 0.00 0.00 0.00 59 1017.0
20260830153704 88 172 6.0 11.0 0.00 0.00 0.00 59 1017.0
20260830153605 88 174 6.0 11.0 0.00 0.00 0.00 59 1017.0
20260830153504 88 172 6.0 11.0 0.00 0.00 0.00 59 1017.0
20260830153405 88 172 6.0 11.0 0.00 0.00 0.00 59 1017.0
20260830153305 88 175 6.0 11.0 0.00 0.00 0.00 59 1017.0
20260830153204 88 177 6.0 11.0 0.00 0.00 0.00 59 1017.0
20260830153005 88 181 6.0 11.0 0.00 0.00 0.00 59 1017.0
20260830152904 88 183 5.0 11.0 0.00 0.00 0.00 60 1017.0
20260830152705 87 173 5.0 10.0 0.00 0.00 0.00 60 1017.0
20260830152605 87 171 5.0 10.0 0.00 0.00 0.00 60 1017.0
20260830152505 87 174 5.0 10.0 0.00 0.00 0.00 59 1017.0
20260830152404 87 175 4.0 10.0 0.00 0.00 0.00 60 1017.0
20260830152306 87 178 4.0 10.0 0.00 0.00 0.00 60 1017.0
20260830152205 87 179 4.0 10.0 0.00 0.00 0.00 60 1017.0
20260830152104 88 181 4.0 10.0 0.00 0.00 0.00 60 1016.9
20260830152005 87 188 5.0 11.0 0.00 0.00 0.00 60 1016.9
20260830151904 87 188 5.0 11.0 0.00 0.00 0.00 60 1016.9
20260830151804 87 190 5.0 11.0 0.00 0.00 0.00 60 1016.9
20260830151705 87 191 5.0 11.0 0.00 0.00 0.00 60 1016.9
20260830151604 87 190 6.0 11.0 0.00 0.00 0.00 60 1016.9
20260830151505 87 187 6.0 11.0 0.00 0.00 0.00 61 1016.9
20260830151404 87 184 7.0 11.0 0.00 0.00 0.00 62 1017.0
20260830151305 86 179 7.0 12.0 0.00 0.00 0.00 62 1017.0
20260830151204 86 176 7.0 12.0 0.00 0.00 0.00 62 1017.0
20260830151105 86 173 7.0 12.0 0.00 0.00 0.00 63 1017.0
20260830151004 86 172 7.0 12.0 0.00 0.00 0.00 62 1016.9
20260830150905 86 172 7.0 12.0 0.00 0.00 0.00 62 1017.0
20260830150804 86 174 7.0 12.0 0.00 0.00 0.00 62 1016.9
20260830150705 86 175 6.0 12.0 0.00 0.00 0.00 62 1017.0
20260830150505 86 176 6.0 12.0 0.00 0.00 0.00 62 1016.9
20260830150404 86 181 6.0 12.0 0.00 0.00 0.00 62 1016.9
20260830150305 86 183 6.0 11.0 0.00 0.00 0.00 62 1016.9
20260830150204 86 184 6.0 11.0 0.00 0.00 0.00 63 1016.8
20260830150104 86 185 6.0 11.0 0.00 0.00 0.00 63 1016.8
20260830150005 86 183 6.0 11.0 0.00 0.00 0.00 63 1016.7
20260830145904 86 181 6.0 11.0 0.00 0.00 0.00 64 1016.7
20260830145805 85 177 6.0 10.0 0.00 0.00 0.00 64 1016.7
20260830145704 85 179 6.0 9.0 0.00 0.00 0.00 64 1016.6
20260830145605 85 179 6.0 9.0 0.00 0.00 0.00 64 1016.7
20260830145505 85 178 6.0 9.0 0.00 0.00 0.00 64 1016.7
20260830145405 85 176 6.0 9.0 0.00 0.00 0.00 64 1016.7
20260830145306 85 174 6.0 10.0 0.00 0.00 0.00 64 1016.7
20260830145204 85 175 6.0 10.0 0.00 0.00 0.00 64 1016.7
20260830145004 85 176 6.0 10.0 0.00 0.00 0.00 64 1016.7
20260830144905 85 181 6.0 10.0 0.00 0.00 0.00 65 1016.8
20260830144705 85 184 6.0 10.0 0.00 0.00 0.00 65 1016.7
20260830144604 85 189 6.0 10.0 0.00 0.00 0.00 64 1016.7
20260830144505 85 193 6.0 10.0 0.00 0.00 0.00 64 1016.6
20260830144405 85 199 5.0 11.0 0.00 0.00 0.00 64 1016.6
20260830144306 85 202 5.0 11.0 0.00 0.00 0.00 65 1016.6
20260830144204 85 204 5.0 11.0 0.00 0.00 0.00 66 1016.6
20260830144105 85 206 5.0 11.0 0.00 0.00 0.00 66 1016.6
20260830143904 84 206 5.0 11.0 0.00 0.00 0.00 66 1016.6
20260830143805 84 210 6.0 11.0 0.00 0.00 0.00 66 1016.7
20260830143604 84 209 5.0 11.0 0.00 0.00 0.00 66 1016.6
20260830143504 84 208 5.0 11.0 0.00 0.00 0.00 66 1016.7
20260830143404 84 209 5.0 10.0 0.00 0.00 0.00 67 1016.7
20260830143305 84 210 5.0 10.0 0.00 0.00 0.00 67 1016.6
20260830143204 84 210 6.0 10.0 0.00 0.00 0.00 67 1016.6
20260830143104 84 213 6.0 11.0 0.00 0.00 0.00 68 1016.7
20260830143005 83 217 6.0 11.0 0.00 0.00 0.00 68 1016.7
20260830142904 83 218 6.0 11.0 0.00 0.00 0.00 68 1016.6
20260830142804 83 215 6.0 11.0 0.00 0.00 0.00 68 1016.7
20260830142705 83 212 6.0 11.0 0.00 0.00 0.00 69 1016.7
20260830142604 83 210 6.0 11.0 0.00 0.00 0.00 69 1016.7
20260830142505 83 213 6.0 11.0 0.00 0.00 0.00 69 1016.7
20260830142306 83 215 6.0 11.0 0.00 0.00 0.00 69 1016.7
20260830142004 83 214 6.0 11.0 0.00 0.00 0.00 70 1016.7
20260830141905 82 214 6.0 12.0 0.00 0.00 0.00 70 1016.7
20260830141805 82 216 6.0 12.0 0.00 0.00 0.00 70 1016.7
20260830141604 82 220 5.0 12.0 0.00 0.00 0.00 70 1016.7
20260830141505 82 217 5.0 12.0 0.00 0.00 0.00 70 1016.7
20260830141405 82 215 5.0 12.0 0.00 0.00 0.00 70 1016.6
20260830141304 82 214 6.0 12.0 0.00 0.00 0.00 71 1016.6
20260830141204 82 212 6.0 12.0 0.00 0.00 0.00 71 1016.6
20260830141005 82 210 6.0 12.0 0.00 0.00 0.00 72 1016.5
20260830140804 82 207 6.0 11.0 0.00 0.00 0.00 72 1016.5
20260830140604 82 204 6.0 11.0 0.00 0.00 0.00 72 1016.5
20260830140505 81 204 5.0 11.0 0.00 0.00 0.00 72 1016.5
20260830140304 81 206 5.0 10.0 0.00 0.00 0.00 72 1016.4
20260830140205 81 208 5.0 9.0 0.00 0.00 0.00 72 1016.4
20260830140004 81 207 5.0 10.0 0.00 0.00 0.00 73 1016.4
20260830135905 81 207 6.0 11.0 0.00 0.00 0.00 73 1016.4
20260830135804 81 207 6.0 11.0 0.00 0.00 0.00 73 1016.5
20260830135705 81 208 6.0 11.0 0.00 0.00 0.00 73 1016.5
20260830135604 81 205 6.0 11.0 0.00 0.00 0.00 73 1016.5
20260830135505 81 205 6.0 11.0 0.00 0.00 0.00 74 1016.5
20260830135404 81 205 6.0 11.0 0.00 0.00 0.00 73 1016.4
20260830135306 80 202 6.0 11.0 0.00 0.00 0.00 74 1016.5
20260830135205 80 199 7.0 11.0 0.00 0.00 0.00 74 1016.4
20260830135104 80 198 7.0 12.0 0.00 0.00 0.00 74 1016.5
20260830135004 80 195 7.0 12.0 0.00 0.00 0.00 74 1016.4
20260830134905 80 193 7.0 12.0 0.00 0.00 0.00 74 1016.4
20260830134804 80 194 7.0 12.0 0.00 0.00 0.00 75 1016.4
20260830134705 80 194 7.0 12.0 0.00 0.00 0.00 75 1016.3
20260830134604 80 195 7.0 12.0 0.00 0.00 0.00 75 1016.3
20260830134504 80 194 7.0 12.0 0.00 0.00 0.00 75 1016.3
20260830134404 80 193 7.0 12.0 0.00 0.00 0.00 75 1016.3
20260830134305 80 193 7.0 12.0 0.00 0.00 0.00 75 1016.3
20260830134104 80 194 8.0 11.0 0.00 0.00 0.00 75 1016.3
20260830134005 79 197 7.0 11.0 0.00 0.00 0.00 75 1016.3
20260830133905 79 198 7.0 11.0 0.00 0.00 0.00 76 1016.3
20260830133805 79 197 7.0 11.0 0.00 0.00 0.00 75 1016.3
20260830133705 79 196 7.0 11.0 0.00 0.00 0.00 76 1016.3
20260830133604 79 197 7.0 11.0 0.00 0.00 0.00 76 1016.4
20260830133504 79 197 7.0 11.0 0.00 0.00 0.00 76 1016.4
20260830133405 79 198 7.0 11.0 0.00 0.00 0.00 76 1016.3
20260830133204 79 198 7.0 11.0 0.00 0.00 0.00 76 1016.3
20260830133104 79 200 6.0 11.0 0.00 0.00 0.00 76 1016.3
20260830133005 79 200 6.0 11.0 0.00 0.00 0.00 76 1016.3
20260830132905 79 199 6.0 11.0 0.00 0.00 0.00 76 1016.3
20260830132804 79 200 6.0 11.0 0.00 0.00 0.00 76 1016.3
20260830132704 79 201 6.0 11.0 0.00 0.00 0.00 76 1016.3
20260830132604 79 202 6.0 11.0 0.00 0.00 0.00 76 1016.2
20260830132306 79 203 5.0 11.0 0.00 0.00 0.00 77 1016.2
20260830132204 78 204 5.0 11.0 0.00 0.00 0.00 77 1016.2
20260830132104 78 203 5.0 11.0 0.00 0.00 0.00 77 1016.2
20260830132004 78 204 4.0 11.0 0.00 0.00 0.00 77 1016.2
20260830131705 78 206 4.0 8.0 0.00 0.00 0.00 77 1016.1
20260830131604 78 206 4.0 8.0 0.00 0.00 0.00 77 1016.1
20260830131304 78 205 4.0 8.0 0.00 0.00 0.00 78 1016.1
20260830131205 78 205 4.0 8.0 0.00 0.00 0.00 78 1016.1
20260830131105 78 207 4.0 8.0 0.00 0.00 0.00 78 1016.0
20260830131004 78 206 4.0 8.0 0.00 0.00 0.00 78 1016.1
20260830130904 78 207 5.0 8.0 0.00 0.00 0.00 78 1016.1
20260830130804 77 207 5.0 8.0 0.00 0.00 0.00 78 1016.1
20260830130704 77 207 4.0 8.0 0.00 0.00 0.00 78 1016.1
20260830130604 77 207 4.0 8.0 0.00 0.00 0.00 78 1016.1
20260830130505 77 208 4.0 8.0 0.00 0.00 0.00 79 1016.0
20260830130404 77 209 4.0 8.0 0.00 0.00 0.00 79 1016.0
20260830130305 77 209 4.0 8.0 0.00 0.00 0.00 79 1016.0
20260830130204 77 209 4.0 8.0 0.00 0.00 0.00 79 1016.1
20260830130105 77 208 4.0 8.0 0.00 0.00 0.00 79 1016.0
20260830130005 77 208 4.0 8.0 0.00 0.00 0.00 79 1016.1
20260830125905 77 208 4.0 8.0 0.00 0.00 0.00 79 1016.1
20260830125804 77 207 4.0 8.0 0.00 0.00 0.00 79 1016.1
20260830125705 77 207 4.0 8.0 0.00 0.00 0.00 79 1016.1
20260830125604 76 208 4.0 8.0 0.00 0.00 0.00 79 1016.1
20260830125505 76 207 3.0 8.0 0.00 0.00 0.00 79 1016.1
20260830125306 76 208 3.0 6.0 0.00 0.00 0.00 79 1016.1
20260830125204 76 208 3.0 6.0 0.00 0.00 0.00 79 1016.1
20260830125104 76 208 3.0 6.0 0.00 0.00 0.00 79 1016.1
20260830125005 76 209 3.0 6.0 0.00 0.00 0.00 80 1016.1
20260830124904 76 210 3.0 6.0 0.00 0.00 0.00 80 1016.1
20260830124805 76 209 3.0 7.0 0.00 0.00 0.00 79 1016.1
20260830124704 76 209 4.0 7.0 0.00 0.00 0.00 80 1016.0
20260830124604 76 209 4.0 7.0 0.00 0.00 0.00 80 1016.0
20260830124505 76 208 4.0 7.0 0.00 0.00 0.00 80 1016.0
20260830124404 76 207 4.0 7.0 0.00 0.00 0.00 80 1016.0
20260830124305 76 205 4.0 7.0 0.00 0.00 0.00 80 1016.0
20260830124104 76 203 4.0 7.0 0.00 0.00 0.00 80 1015.9
20260830124004 76 203 4.0 7.0 0.00 0.00 0.00 80 1016.0
20260830123804 76 203 4.0 7.0 0.00 0.00 0.00 80 1016.0
20260830123604 76 203 4.0 7.0 0.00 0.00 0.00 80 1015.9
20260830123304 76 205 3.0 7.0 0.00 0.00 0.00 80 1015.9
20260830123204 76 205 4.0 7.0 0.00 0.00 0.00 80 1015.9
20260830123004 76 205 3.0 9.0 0.00 0.00 0.00 80 1015.9
20260830122804 76 205 4.0 9.0 0.00 0.00 0.00 80 1015.9
20260830122705 76 205 4.0 9.0 0.00 0.00 0.00 80 1015.9
20260830122505 75 204 4.0 9.0 0.00 0.00 0.00 80 1015.8
20260830122404 75 203 4.0 9.0 0.00 0.00 0.00 80 1015.8
20260830122306 75 204 4.0 9.0 0.00 0.00 0.00 80 1015.8
20260830122205 75 203 4.0 9.0 0.00 0.00 0.00 80 1015.7
20260830122005 75 203 4.0 8.0 0.00 0.00 0.00 80 1015.7
20260830121905 75 202 4.0 8.0 0.00 0.00 0.00 80 1015.7
20260830121804 75 201 4.0 8.0 0.00 0.00 0.00 80 1015.7
20260830121604 76 202 4.0 8.0 0.00 0.00 0.00 80 1015.7
20260830121504 76 201 4.0 8.0 0.00 0.00 0.00 80 1015.7
20260830121404 75 201 4.0 8.0 0.00 0.00 0.00 80 1015.7
20260830121304 75 201 4.0 8.0 0.00 0.00 0.00 80 1015.7
20260830121204 75 200 4.0 8.0 0.00 0.00 0.00 80 1015.8
20260830121105 76 201 4.0 8.0 0.00 0.00 0.00 80 1015.7
20260830121004 76 201 4.0 8.0 0.00 0.00 0.00 80 1015.7
20260830120904 76 202 4.0 7.0 0.00 0.00 0.00 80 1015.7
20260830120804 75 202 4.0 7.0 0.00 0.00 0.00 80 1015.7
20260830120704 75 200 4.0 7.0 0.00 0.00 0.00 80 1015.7
20260830120504 75 200 3.0 7.0 0.00 0.00 0.00 80 1015.7
20260830120404 75 200 3.0 7.0 0.00 0.00 0.00 80 1015.6
20260830120304 75 201 3.0 7.0 0.00 0.00 0.00 80 1015.6
20260830120204 75 200 3.0 7.0 0.00 0.00 0.00 80 1015.6
20260830120104 75 199 3.0 7.0 0.00 0.00 0.00 80 1015.6
20260830120004 75 200 3.0 7.0 0.00 0.00 0.00 80 1015.5
20260830115905 75 200 3.0 6.0 0.00 0.00 0.00 80 1015.4
20260830115805 75 200 3.0 6.0 0.00 0.00 0.00 80 1015.5
20260830115704 75 201 3.0 6.0 0.00 0.00 0.00 80 1015.5
20260830115404 76 203 3.0 6.0 0.00 0.00 0.00 80 1015.5
20260830115306 75 203 3.0 6.0 0.00 0.00 0.00 80 1015.5
20260830115204 76 203 3.0 6.0 0.00 0.00 0.00 80 1015.5
20260830115106 76 203 3.0 6.0 0.00 0.00 0.00 80 1015.5
20260830115004 76 203 3.0 6.0 0.00 0.00 0.00 80 1015.5
20260830114905 76 204 3.0 6.0 0.00 0.00 0.00 80 1015.4
20260830114804 76 204 3.0 6.0 0.00 0.00 0.00 80 1015.4
20260830114704 76 204 3.0 5.0 0.00 0.00 0.00 80 1015.3
20260830114604 76 204 3.0 5.0 0.00 0.00 0.00 80 1015.4
20260830114504 76 204 3.0 5.0 0.00 0.00 0.00 80 1015.3
20260830114404 76 204 3.0 5.0 0.00 0.00 0.00 79 1015.3
20260830114204 75 204 3.0 5.0 0.00 0.00 0.00 80 1015.3
20260830114104 76 203 3.0 5.0 0.00 0.00 0.00 80 1015.3
20260830114004 75 201 3.0 5.0 0.00 0.00 0.00 80 1015.3
20260830113904 75 200 2.0 5.0 0.00 0.00 0.00 80 1015.3
20260830113804 75 199 2.0 5.0 0.00 0.00 0.00 80 1015.3
20260830113705 75 197 2.0 5.0 0.00 0.00 0.00 80 1015.3
20260830113604 75 195 2.0 5.0 0.00 0.00 0.00 80 1015.3
20260830113505 75 190 2.0 5.0 0.00 0.00 0.00 79 1015.3
20260830113304 75 185 2.0 5.0 0.00 0.00 0.00 80 1015.3
20260830113204 75 185 2.0 5.0 0.00 0.00 0.00 79 1015.3
20260830113104 75 184 2.0 5.0 0.00 0.00 0.00 79 1015.3
20260830113004 75 184 3.0 5.0 0.00 0.00 0.00 79 1015.3
20260830112906 75 185 3.0 5.0 0.00 0.00 0.00 79 1015.3
20260830112804 76 185 3.0 5.0 0.00 0.00 0.00 79 1015.3
20260830112505 76 188 2.0 5.0 0.00 0.00 0.00 79 1015.3
20260830112404 76 191 2.0 5.0 0.00 0.00 0.00 79 1015.2
20260830112306 76 192 2.0 5.0 0.00 0.00 0.00 79 1015.2
20260830112204 76 192 1.0 5.0 0.00 0.00 0.00 79 1015.2
20260830112004 76 191 1.0 4.0 0.00 0.00 0.00 79 1015.2
20260830111804 76 191 1.0 4.0 0.00 0.00 0.00 79 1015.3
20260830111705 76 192 1.0 4.0 0.00 0.00 0.00 79 1015.3
20260830111604 76 191 1.0 4.0 0.00 0.00 0.00 79 1015.3
20260830111505 76 188 2.0 4.0 0.00 0.00 0.00 79 1015.3
20260830111404 76 185 2.0 4.0 0.00 0.00 0.00 78 1015.4
20260830111306 76 185 2.0 4.0 0.00 0.00 0.00 78 1015.3
20260830111105 76 184 2.0 4.0 0.00 0.00 0.00 78 1015.4
20260830111004 76 182 2.0 4.0 0.00 0.00 0.00 78 1015.3
20260830110905 76 182 3.0 4.0 0.00 0.00 0.00 78 1015.3
20260830110804 76 181 3.0 4.0 0.00 0.00 0.00 78 1015.3
20260830110704 76 177 3.0 4.0 0.00 0.00 0.00 78 1015.4
20260830110604 76 177 2.0 4.0 0.00 0.00 0.00 78 1015.3
20260830110504 76 176 2.0 4.0 0.00 0.00 0.00 78 1015.3
20260830110404 76 176 3.0 4.0 0.00 0.00 0.00 78 1015.3
20260830110304 76 175 3.0 4.0 0.00 0.00 0.00 78 1015.4
20260830110204 76 175 3.0 4.0 0.00 0.00 0.00 78 1015.3
20260830110004 76 177 3.0 6.0 0.00 0.00 0.00 78 1015.2
20260830105904 76 178 3.0 6.0 0.00 0.00 0.00 78 1015.3
20260830105804 76 179 3.0 6.0 0.00 0.00 0.00 78 1015.2
20260830105705 76 181 3.0 6.0 0.00 0.00 0.00 77 1015.2
20260830105604 76 185 3.0 8.0 0.00 0.00 0.00 77 1015.2
20260830105505 76 187 3.0 8.0 0.00 0.00 0.00 77 1015.2
20260830105404 77 189 3.0 8.0 0.00 0.00 0.00 77 1015.2
20260830105204 77 194 3.0 8.0 0.00 0.00 0.00 77 1015.2
20260830105004 77 200 3.0 8.0 0.00 0.00 0.00 77 1015.1
20260830104904 77 202 4.0 8.0 0.00 0.00 0.00 77 1015.1
20260830104804 77 204 4.0 8.0 0.00 0.00 0.00 77 1015.1
20260830104704 77 206 4.0 8.0 0.00 0.00 0.00 77 1015.1
20260830104604 77 205 4.0 6.0 0.00 0.00 0.00 77 1015.1
20260830104504 77 205 4.0 6.0 0.00 0.00 0.00 77 1015.1
20260830104404 77 205 4.0 6.0 0.00 0.00 0.00 77 1015.1
20260830104305 77 205 4.0 6.0 0.00 0.00 0.00 77 1015.1
20260830104204 77 204 4.0 6.0 0.00 0.00 0.00 77 1015.1
20260830104105 77 203 4.0 6.0 0.00 0.00 0.00 77 1015.0
20260830104004 77 202 3.0 6.0 0.00 0.00 0.00 77 1015.0
20260830103904 77 200 3.0 6.0 0.00 0.00 0.00 77 1015.0
20260830103804 77 200 3.0 6.0 0.00 0.00 0.00 77 1015.0
20260830103705 77 199 3.0 6.0 0.00 0.00 0.00 77 1015.0
20260830103604 77 199 3.0 6.0 0.00 0.00 0.00 77 1015.0
20260830103404 77 198 3.0 6.0 0.00 0.00 0.00 77 1015.0
20260830103304 77 196 3.0 6.0 0.00 0.00 0.00 77 1015.0
20260830103204 77 196 3.0 7.0 0.00 0.00 0.00 77 1015.0
20260830103105 77 197 3.0 7.0 0.00 0.00 0.00 77 1015.0
20260830103004 77 196 3.0 7.0 0.00 0.00 0.00 77 1015.0
20260830102904 77 196 3.0 7.0 0.00 0.00 0.00 77 1015.0
20260830102804 77 196 3.0 7.0 0.00 0.00 0.00 76 1015.0
20260830102704 77 195 4.0 7.0 0.00 0.00 0.00 76 1014.9
20260830102504 77 196 4.0 7.0 0.00 0.00 0.00 76 1014.9
20260830102306 77 197 4.0 7.0 0.00 0.00 0.00 76 1014.9
20260830102204 77 197 4.0 7.0 0.00 0.00 0.00 76 1014.9
20260830102104 77 197 4.0 7.0 0.00 0.00 0.00 76 1014.9
20260830102004 77 196 3.0 7.0 0.00 0.00 0.00 76 1014.9
20260830101904 77 195 3.0 7.0 0.00 0.00 0.00 76 1014.9
20260830101704 77 193 3.0 7.0 0.00 0.00 0.00 76 1014.9
20260830101505 77 190 3.0 7.0 0.00 0.00 0.00 76 1014.9
20260830101404 77 190 3.0 7.0 0.00 0.00 0.00 76 1014.9
20260830101305 77 190 3.0 7.0 0.00 0.00 0.00 76 1014.9
20260830101204 78 189 3.0 7.0 0.00 0.00 0.00 76 1014.9
20260830101104 78 189 3.0 7.0 0.00 0.00 0.00 75 1014.9
20260830101004 78 191 4.0 7.0 0.00 0.00 0.00 75 1014.9
20260830100904 78 191 4.0 8.0 0.00 0.00 0.00 75 1015.0
20260830100804 78 192 4.0 8.0 0.00 0.00 0.00 75 1014.9
20260830100705 78 193 4.0 8.0 0.00 0.00 0.00 75 1014.9
20260830100604 78 194 4.0 8.0 0.00 0.00 0.00 75 1014.9
20260830100504 78 196 4.0 8.0 0.00 0.00 0.00 75 1014.9
20260830100404 78 196 4.0 8.0 0.00 0.00 0.00 75 1014.9
20260830100304 78 196 4.0 8.0 0.00 0.00 0.00 75 1014.9
20260830100203 78 197 4.0 8.0 0.00 0.00 0.00 75 1014.9
20260830100105 78 198 4.0 8.0 0.00 0.00 0.00 75 1014.9
20260830095904 78 200 4.0 8.0 0.00 0.00 0.00 75 1015.0
20260830095804 78 200 4.0 8.0 0.00 0.00 0.00 75 1014.9
20260830095604 78 203 4.0 8.0 0.00 0.00 0.00 75 1014.8
20260830095504 78 203 4.0 8.0 0.00 0.00 0.00 75 1014.8
20260830095403 78 204 4.0 8.0 0.00 0.00 0.00 75 1014.9
20260830095306 78 205 4.0 8.0 0.00 0.00 0.00 74 1014.9
20260830095204 78 204 4.0 8.0 0.00 0.00 0.00 74 1014.9
20260830095104 78 205 4.0 8.0 0.00 0.00 0.00 74 1014.9
20260830095005 78 204 4.0 8.0 0.00 0.00 0.00 74 1014.9
20260830094904 78 203 4.0 8.0 0.00 0.00 0.00 74 1014.9
20260830094804 78 202 4.0 8.0 0.00 0.00 0.00 74 1014.9
20260830094704 78 201 4.0 8.0 0.00 0.00 0.00 74 1014.9
20260830094505 78 200 4.0 8.0 0.00 0.00 0.00 74 1014.9
20260830094404 78 199 4.0 8.0 0.00 0.00 0.00 74 1014.9
20260830094204 78 199 3.0 8.0 0.00 0.00 0.00 74 1015.0
20260830094104 78 198 3.0 8.0 0.00 0.00 0.00 74 1015.0
20260830094004 78 199 3.0 8.0 0.00 0.00 0.00 74 1015.0
20260830093705 79 202 4.0 8.0 0.00 0.00 0.00 74 1015.0
20260830093604 79 204 4.0 8.0 0.00 0.00 0.00 74 1015.0
20260830093505 79 204 4.0 8.0 0.00 0.00 0.00 73 1015.0
20260830093404 79 204 4.0 8.0 0.00 0.00 0.00 73 1015.0
20260830093304 79 206 5.0 8.0 0.00 0.00 0.00 73 1015.0
20260830093205 79 205 5.0 9.0 0.00 0.00 0.00 73 1015.0
20260830093105 79 205 5.0 9.0 0.00 0.00 0.00 73 1015.0
20260830093005 79 206 5.0 10.0 0.00 0.00 0.00 73 1015.0
20260830092904 79 206 5.0 10.0 0.00 0.00 0.00 73 1015.0
20260830092704 79 204 5.0 10.0 0.00 0.00 0.00 73 1015.0
20260830092605 79 203 5.0 10.0 0.00 0.00 0.00 73 1015.0
20260830092504 79 204 5.0 10.0 0.00 0.00 0.00 73 1015.0
20260830092203 79 203 5.0 10.0 0.00 0.00 0.00 73 1015.0
20260830092104 79 203 5.0 10.0 0.00 0.00 0.00 73 1015.0
20260830091904 79 202 5.0 9.0 0.00 0.00 0.00 73 1014.9
20260830091704 79 202 5.0 10.0 0.00 0.00 0.00 73 1014.9
20260830091604 79 201 5.0 10.0 0.00 0.00 0.00 73 1014.9
20260830091504 79 201 5.0 10.0 0.00 0.00 0.00 73 1014.9
20260830091305 79 202 6.0 11.0 0.00 0.00 0.00 72 1015.0
20260830091204 79 203 6.0 11.0 0.00 0.00 0.00 72 1014.9
20260830091104 79 203 6.0 11.0 0.00 0.00 0.00 72 1015.0
20260830091004 79 204 6.0 11.0 0.00 0.00 0.00 72 1014.9
20260830090905 79 204 5.0 11.0 0.00 0.00 0.00 72 1015.0
20260830090803 79 205 5.0 11.0 0.00 0.00 0.00 72 1015.0
20260830090704 79 204 5.0 11.0 0.00 0.00 0.00 72 1015.0
20260830090603 79 204 5.0 11.0 0.00 0.00 0.00 72 1015.0
20260830090504 79 205 5.0 11.0 0.00 0.00 0.00 72 1015.0
20260830090304 79 203 4.0 10.0 0.00 0.00 0.00 72 1014.9
20260830090205 79 202 4.0 9.0 0.00 0.00 0.00 72 1014.9
20260830090104 79 201 4.0 9.0 0.00 0.00 0.00 72 1015.0
20260830090005 79 201 4.0 9.0 0.00 0.00 0.00 72 1015.0
20260830085904 79 200 4.0 9.0 0.00 0.00 0.00 72 1015.0
20260830085704 79 201 4.0 9.0 0.00 0.00 0.00 72 1015.0
20260830085604 79 199 4.0 9.0 0.00 0.00 0.00 72 1014.9
20260830085504 79 198 3.0 9.0 0.00 0.00 0.00 72 1015.0
20260830085307 79 197 4.0 8.0 0.00 0.00 0.00 72 1014.9
20260830085204 80 197 4.0 8.0 0.00 0.00 0.00 72 1015.0
20260830085104 79 198 4.0 8.0 0.00 0.00 0.00 72 1014.9
20260830085004 80 198 4.0 8.0 0.00 0.00 0.00 72 1015.0
20260830084904 80 198 4.0 8.0 0.00 0.00 0.00 72 1014.9
20260830084804 80 197 4.0 8.0 0.00 0.00 0.00 72 1014.9
20260830084704 80 197 4.0 8.0 0.00 0.00 0.00 72 1014.9
20260830084604 80 197 4.0 8.0 0.00 0.00 0.00 72 1014.9
20260830084504 80 196 4.0 7.0 0.00 0.00 0.00 72 1015.0
20260830084404 80 196 4.0 7.0 0.00 0.00 0.00 72 1015.0
20260830084304 80 195 4.0 7.0 0.00 0.00 0.00 72 1015.0
20260830084204 80 195 4.0 7.0 0.00 0.00 0.00 72 1015.0
20260830084004 80 194 4.0 8.0 0.00 0.00 0.00 72 1015.0
20260830083904 80 194 4.0 8.0 0.00 0.00 0.00 72 1015.0
20260830083803 80 194 4.0 8.0 0.00 0.00 0.00 72 1015.0
20260830083604 80 196 4.0 8.0 0.00 0.00 0.00 72 1015.0
20260830083504 80 196 4.0 8.0 0.00 0.00 0.00 72 1015.1
20260830083404 80 196 4.0 8.0 0.00 0.00 0.00 71 1015.1
20260830083304 80 196 4.0 8.0 0.00 0.00 0.00 71 1015.1
20260830083203 80 195 4.0 9.0 0.00 0.00 0.00 71 1015.1
20260830083104 80 196 4.0 9.0 0.00 0.00 0.00 71 1015.1
20260830083004 80 196 4.0 9.0 0.00 0.00 0.00 71 1015.1
20260830082904 80 197 4.0 9.0 0.00 0.00 0.00 71 1015.1
20260830082804 80 196 4.0 9.0 0.00 0.00 0.00 71 1015.1
20260830082705 80 195 4.0 9.0 0.00 0.00 0.00 71 1015.1
20260830082504 80 195 4.0 9.0 0.00 0.00 0.00 71 1015.1
20260830082404 80 194 4.0 9.0 0.00 0.00 0.00 71 1015.0
20260830082306 80 194 4.0 9.0 0.00 0.00 0.00 71 1015.0
20260830082204 80 194 4.0 8.0 0.00 0.00 0.00 71 1015.0
20260830082105 80 194 4.0 8.0 0.00 0.00 0.00 71 1015.0
20260830082004 80 194 4.0 8.0 0.00 0.00 0.00 71 1015.0
20260830081904 80 191 4.0 8.0 0.00 0.00 0.00 71 1015.0
20260830081805 80 191 4.0 8.0 0.00 0.00 0.00 71 1015.0
20260830081704 80 190 4.0 8.0 0.00 0.00 0.00 71 1015.0
20260830081604 80 189 4.0 8.0 0.00 0.00 0.00 71 1015.0
20260830081504 80 189 4.0 8.0 0.00 0.00 0.00 71 1015.0
20260830081404 80 189 4.0 8.0 0.00 0.00 0.00 71 1015.0
20260830081304 80 189 4.0 8.0 0.00 0.00 0.00 71 1015.0
20260830081104 80 189 4.0 8.0 0.00 0.00 0.00 71 1015.1
20260830081005 80 189 4.0 8.0 0.00 0.00 0.00 71 1015.1
20260830080905 80 191 4.0 8.0 0.00 0.00 0.00 71 1015.1
20260830080804 80 192 4.0 8.0 0.00 0.00 0.00 71 1015.1
20260830080704 80 194 4.0 8.0 0.00 0.00 0.00 71 1015.0
20260830080604 80 195 4.0 8.0 0.00 0.00 0.00 71 1015.0
20260830080504 80 197 3.0 8.0 0.00 0.00 0.00 71 1015.0
20260830080404 80 196 3.0 8.0 0.00 0.00 0.00 71 1015.0
20260830080304 80 196 3.0 8.0 0.00 0.00 0.00 71 1015.0
20260830080204 80 194 3.0 8.0 0.00 0.00 0.00 71 1015.0
20260830080006 80 192 3.0 8.0 0.00 0.00 0.00 71 1015.0
20260830075904 80 188 4.0 8.0 0.00 0.00 0.00 71 1015.0
20260830075803 80 184 4.0 8.0 0.00 0.00 0.00 71 1015.0
20260830075704 80 179 4.0 8.0 0.00 0.00 0.00 71 1015.0
20260830075603 80 178 4.0 8.0 0.00 0.00 0.00 71 1015.0
20260830075504 80 176 5.0 8.0 0.00 0.00 0.00 71 1015.0
20260830075404 80 175 5.0 8.0 0.00 0.00 0.00 71 1015.0
20260830075203 81 173 5.0 8.0 0.00 0.00 0.00 71 1015.1
20260830075104 81 172 5.0 8.0 0.00 0.00 0.00 71 1015.1
20260830075005 81 172 5.0 8.0 0.00 0.00 0.00 70 1015.1
20260830074904 81 172 5.0 8.0 0.00 0.00 0.00 70 1015.1
20260830074804 81 174 5.0 10.0 0.00 0.00 0.00 70 1015.1
20260830074704 81 174 5.0 10.0 0.00 0.00 0.00 70 1015.0
20260830074604 81 174 5.0 10.0 0.00 0.00 0.00 70 1015.1
20260830074404 81 177 5.0 10.0 0.00 0.00 0.00 70 1015.1
20260830074304 81 177 5.0 10.0 0.00 0.00 0.00 70 1015.1
20260830074204 81 179 5.0 10.0 0.00 0.00 0.00 70 1015.1
20260830074104 81 182 5.0 10.0 0.00 0.00 0.00 70 1015.1
20260830074004 81 183 5.0 10.0 0.00 0.00 0.00 70 1015.1
20260830073903 81 183 5.0 10.0 0.00 0.00 0.00 70 1015.1
20260830073805 81 184 5.0 9.0 0.00 0.00 0.00 70 1015.2
20260830073704 81 186 5.0 9.0 0.00 0.00 0.00 70 1015.1
20260830073504 81 187 5.0 9.0 0.00 0.00 0.00 70 1015.2
20260830073404 81 186 5.0 9.0 0.00 0.00 0.00 70 1015.2
20260830073304 81 186 5.0 9.0 0.00 0.00 0.00 70 1015.2
20260830073204 81 186 5.0 9.0 0.00 0.00 0.00 70 1015.2
20260830073104 81 187 5.0 10.0 0.00 0.00 0.00 70 1015.1
20260830073005 81 186 5.0 10.0 0.00 0.00 0.00 70 1015.2
20260830072904 81 185 5.0 10.0 0.00 0.00 0.00 70 1015.2
20260830072804 81 184 5.0 10.0 0.00 0.00 0.00 70 1015.1
20260830072704 81 183 5.0 10.0 0.00 0.00 0.00 70 1015.1
20260830072604 81 183 5.0 10.0 0.00 0.00 0.00 70 1015.1
20260830072504 81 183 5.0 10.0 0.00 0.00 0.00 70 1015.1
20260830072404 81 184 4.0 10.0 0.00 0.00 0.00 70 1015.1
20260830072306 81 185 4.0 10.0 0.00 0.00 0.00 70 1015.1
20260830072204 81 185 4.0 10.0 0.00 0.00 0.00 71 1015.1
20260830072104 81 185 4.0 10.0 0.00 0.00 0.00 71 1015.1
20260830072004 81 186 4.0 8.0 0.00 0.00 0.00 71 1015.1
20260830071904 81 187 4.0 7.0 0.00 0.00 0.00 71 1015.1
20260830071805 81 188 4.0 7.0 0.00 0.00 0.00 71 1015.1
20260830071706 81 188 4.0 7.0 0.00 0.00 0.00 71 1015.1
20260830071504 81 184 4.0 7.0 0.00 0.00 0.00 71 1015.1
20260830071404 81 181 4.0 8.0 0.00 0.00 0.00 71 1015.1
20260830071304 81 179 5.0 8.0 0.00 0.00 0.00 71 1015.1
20260830071204 81 176 4.0 9.0 0.00 0.00 0.00 71 1015.0
20260830071104 81 175 5.0 9.0 0.00 0.00 0.00 71 1015.0
20260830070904 81 173 5.0 9.0 0.00 0.00 0.00 71 1014.9
20260830070803 81 173 5.0 9.0 0.00 0.00 0.00 71 1015.0
20260830070704 81 172 5.0 9.0 0.00 0.00 0.00 71 1015.1
20260830070603 81 172 4.0 9.0 0.00 0.00 0.00 71 1015.1
20260830070504 81 173 4.0 9.0 0.00 0.00 0.00 71 1015.1
20260830070303 81 176 3.0 9.0 0.00 0.00 0.00 71 1015.1
20260830070204 81 179 3.0 6.0 0.00 0.00 0.00 70 1015.1
20260830070104 81 183 3.0 6.0 0.00 0.00 0.00 70 1015.1
20260830065904 81 191 3.0 6.0 0.00 0.00 0.00 70 1015.1
20260830065604 81 195 3.0 6.0 0.00 0.00 0.00 70 1015.0
20260830065504 81 195 3.0 6.0 0.00 0.00 0.00 70 1015.1
20260830065404 81 194 3.0 6.0 0.00 0.00 0.00 70 1015.0
20260830065306 81 192 3.0 6.0 0.00 0.00 0.00 70 1015.1
20260830065204 81 190 3.0 6.0 0.00 0.00 0.00 70 1015.1
20260830065104 81 189 3.0 6.0 0.00 0.00 0.00 70 1015.1
20260830065005 81 186 3.0 6.0 0.00 0.00 0.00 70 1015.1
20260830064803 81 183 3.0 6.0 0.00 0.00 0.00 69 1015.1
20260830064603 81 182 3.0 6.0 0.00 0.00 0.00 69 1015.1
20260830064504 81 181 3.0 6.0 0.00 0.00 0.00 69 1015.1
20260830064404 81 181 3.0 6.0 0.00 0.00 0.00 69 1015.1
20260830064204 81 181 3.0 7.0 0.00 0.00 0.00 69 1015.1
20260830064104 81 179 3.0 7.0 0.00 0.00 0.00 69 1015.1
20260830063904 81 179 4.0 7.0 0.00 0.00 0.00 69 1015.1
20260830063804 81 178 4.0 7.0 0.00 0.00 0.00 69 1015.1
20260830063704 81 177 4.0 8.0 0.00 0.00 0.00 69 1015.0
20260830063603 82 175 4.0 9.0 0.00 0.00 0.00 69 1015.1
20260830063504 82 173 4.0 9.0 0.00 0.00 0.00 68 1015.1
20260830063403 82 173 4.0 9.0 0.00 0.00 0.00 68 1015.1
20260830063304 82 172 4.0 9.0 0.00 0.00 0.00 68 1015.1
20260830063203 82 172 4.0 9.0 0.00 0.00 0.00 68 1015.1
20260830063105 82 171 4.0 9.0 0.00 0.00 0.00 68 1015.1
20260830062905 82 170 4.0 9.0 0.00 0.00 0.00 68 1015.1
20260830062803 82 170 3.0 9.0 0.00 0.00 0.00 68 1015.1
20260830062704 82 171 3.0 9.0 0.00 0.00 0.00 68 1015.0
20260830062603 82 172 3.0 7.0 0.00 0.00 0.00 68 1015.1
20260830062504 82 174 3.0 7.0 0.00 0.00 0.00 68 1015.1
20260830062405 82 174 3.0 7.0 0.00 0.00 0.00 68 1015.0
20260830062203 82 174 3.0 6.0 0.00 0.00 0.00 67 1015.1
20260830062104 82 175 3.0 6.0 0.00 0.00 0.00 67 1015.1
20260830062004 82 174 3.0 6.0 0.00 0.00 0.00 67 1015.1
20260830061903 82 174 3.0 6.0 0.00 0.00 0.00 67 1015.1
20260830061603 82 173 3.0 6.0 0.00 0.00 0.00 67 1015.1
20260830061404 82 172 3.0 6.0 0.00 0.00 0.00 67 1015.2
20260830061304 82 172 3.0 6.0 0.00 0.00 0.00 67 1015.2
20260830061204 82 172 3.0 6.0 0.00 0.00 0.00 67 1015.2
20260830061103 82 172 3.0 6.0 0.00 0.00 0.00 67 1015.2
20260830061004 82 174 2.0 6.0 0.00 0.00 0.00 67 1015.3
20260830060804 82 178 3.0 5.0 0.00 0.00 0.00 66 1015.2
20260830060604 82 179 2.0 5.0 0.00 0.00 0.00 66 1015.2
20260830060504 82 181 2.0 5.0 0.00 0.00 0.00 66 1015.2
20260830060404 82 184 3.0 5.0 0.00 0.00 0.00 66 1015.2
20260830060303 82 183 3.0 5.0 0.00 0.00 0.00 66 1015.2
20260830060104 82 185 3.0 7.0 0.00 0.00 0.00 66 1015.2
20260830060004 82 185 3.0 7.0 0.00 0.00 0.00 66 1015.2
20260830055904 82 185 3.0 7.0 0.00 0.00 0.00 65 1015.2
20260830055803 82 185 3.0 7.0 0.00 0.00 0.00 65 1015.2
20260830055704 82 183 3.0 7.0 0.00 0.00 0.00 65 1015.2
20260830055603 82 183 3.0 7.0 0.00 0.00 0.00 65 1015.2
20260830055403 82 182 4.0 7.0 0.00 0.00 0.00 65 1015.2
20260830055306 82 182 4.0 8.0 0.00 0.00 0.00 65 1015.2
20260830055004 83 177 4.0 8.0 0.00 0.00 0.00 65 1015.2
20260830054903 83 176 4.0 8.0 0.00 0.00 0.00 65 1015.1
20260830054603 83 177 5.0 9.0 0.00 0.00 0.00 64 1015.1
20260830054504 83 177 5.0 9.0 0.00 0.00 0.00 64 1015.1
20260830054403 83 176 5.0 9.0 0.00 0.00 0.00 64 1015.1
20260830054304 83 178 4.0 9.0 0.00 0.00 0.00 64 1015.1
20260830054203 83 179 4.0 9.0 0.00 0.00 0.00 64 1015.1
20260830054104 83 181 4.0 9.0 0.00 0.00 0.00 64 1015.1
20260830054003 83 179 4.0 9.0 0.00 0.00 0.00 64 1015.1
20260830053904 83 179 4.0 9.0 0.00 0.00 0.00 64 1015.0
20260830053704 83 178 4.0 10.0 0.00 0.00 0.00 64 1015.1
20260830053603 83 177 5.0 10.0 0.00 0.00 0.00 64 1015.0
20260830053504 83 177 5.0 10.0 0.00 0.00 0.00 64 1015.0
20260830053304 83 176 5.0 10.0 0.00 0.00 0.00 64 1015.0
20260830053104 83 176 5.0 10.0 0.00 0.00 0.00 64 1015.1
20260830053003 83 176 5.0 10.0 0.00 0.00 0.00 63 1015.1
20260830052904 83 176 5.0 10.0 0.00 0.00 0.00 63 1015.1
20260830052803 83 176 5.0 10.0 0.00 0.00 0.00 63 1015.1
20260830052504 83 174 5.0 9.0 0.00 0.00 0.00 63 1015.1
20260830052403 84 172 6.0 11.0 0.00 0.00 0.00 63 1015.1
20260830052306 84 171 6.0 11.0 0.00 0.00 0.00 63 1015.1
20260830052203 84 171 6.0 11.0 0.00 0.00 0.00 63 1015.1
20260830052104 84 169 6.0 11.0 0.00 0.00 0.00 63 1015.1
20260830052004 84 169 6.0 11.0 0.00 0.00 0.00 63 1015.1
20260830051904 84 169 6.0 11.0 0.00 0.00 0.00 62 1015.1
20260830051803 84 168 6.0 11.0 0.00 0.00 0.00 62 1015.1
20260830051704 84 168 6.0 11.0 0.00 0.00 0.00 62 1015.1
20260830051603 84 167 6.0 11.0 0.00 0.00 0.00 62 1015.1
20260830051504 84 167 6.0 11.0 0.00 0.00 0.00 62 1015.1
20260830051304 84 165 6.0 10.0 0.00 0.00 0.00 62 1015.0
20260830051203 84 164 6.0 10.0 0.00 0.00 0.00 62 1015.1
20260830051104 84 165 6.0 11.0 0.00 0.00 0.00 62 1015.1